Wetterdaten: Freitag, 22.08.2014
Datum Zeit Temp. Aussen +5cm Feuchte Auss Luftdruck Regen Sonnenschein Regendauer UV Solar Windben
22.08.2014 00:00 13,6 C 11,7 C 80 % 1014,3 hPa 0,0 l/m 0 min 0 min 0,0 UV-I 0 W/m 14,2 km/h (3 Bft)
22.08.2014 00:02 13,5 C 11,7 C 80 % 1014,3 hPa 0,0 l/m 0 min 0 min 0,0 UV-I 0 W/m 17,7 km/h (3 Bft)
22.08.2014 00:05 13,5 C 12,2 C 80 % 1014,3 hPa 0,0 l/m 0 min 0 min 0,0 UV-I 0 W/m 28,2 km/h (4 Bft)
22.08.2014 00:06 13,5 C 12,2 C 80 % 1014,3 hPa 0,0 l/m 0 min 0 min 0,0 UV-I 0 W/m 17,7 km/h (3 Bft)
22.08.2014 00:08 13,5 C 12,2 C 80 % 1014,3 hPa 0,0 l/m 0 min 0 min 0,0 UV-I 0 W/m 14,2 km/h (3 Bft)
22.08.2014 00:10 13,5 C 12,2 C 80 % 1014,3 hPa 0,0 l/m 0 min 0 min 0,0 UV-I 0 W/m 21,3 km/h (4 Bft)
22.08.2014 00:12 13,5 C 12,2 C 80 % 1014,3 hPa 0,0 l/m 0 min 0 min 0,0 UV-I 0 W/m 14,2 km/h (3 Bft)
22.08.2014 00:14 13,4 C 11,7 C 80 % 1014,3 hPa 0,0 l/m 0 min 0 min 0,0 UV-I 0 W/m 14,2 km/h (3 Bft)
22.08.2014 00:16 13,4 C 11,7 C 80 % 1014,3 hPa 0,0 l/m 0 min 0 min 0,0 UV-I 0 W/m 10,7 km/h (2 Bft)
22.08.2014 00:18 13,4 C 11,7 C 81 % 1014,3 hPa 0,0 l/m 0 min 0 min 0,0 UV-I 0 W/m 14,2 km/h (3 Bft)
22.08.2014 00:20 13,4 C 11,7 C 81 % 1014,3 hPa 0,0 l/m 0 min 0 min 0,0 UV-I 0 W/m 17,7 km/h (3 Bft)
22.08.2014 00:22 13,5 C 11,7 C 80 % 1014,3 hPa 0,0 l/m 0 min 0 min 0,0 UV-I 0 W/m 14,2 km/h (3 Bft)
22.08.2014 00:24 13,5 C 11,7 C 81 % 1014,3 hPa 0,0 l/m 0 min 0 min 0,0 UV-I 0 W/m 21,3 km/h (4 Bft)
22.08.2014 00:26 13,4 C 11,7 C 81 % 1014,3 hPa 0,0 l/m 0 min 0 min 0,0 UV-I 0 W/m 21,3 km/h (4 Bft)
22.08.2014 00:28 13,4 C 11,7 C 81 % 1014,3 hPa 0,0 l/m 0 min 0 min 0,0 UV-I 0 W/m 14,2 km/h (3 Bft)
22.08.2014 00:30 13,3 C 11,7 C 81 % 1014,3 hPa 0,0 l/m 0 min 0 min 0,0 UV-I 0 W/m 10,7 km/h (2 Bft)
22.08.2014 00:32 13,3 C 11,7 C 81 % 1014,3 hPa 0,0 l/m 0 min 0 min 0,0 UV-I 0 W/m 21,3 km/h (4 Bft)
22.08.2014 00:34 13,3 C 11,7 C 82 % 1014,3 hPa 0,0 l/m 0 min 0 min 0,0 UV-I 0 W/m 17,7 km/h (3 Bft)
22.08.2014 00:36 13,3 C 11,7 C 82 % 1014,3 hPa 0,0 l/m 0 min 0 min 0,0 UV-I 0 W/m 14,2 km/h (3 Bft)
22.08.2014 00:38 13,2 C 11,7 C 82 % 1014,3 hPa 0,0 l/m 0 min 0 min 0,0 UV-I 0 W/m 17,7 km/h (3 Bft)
22.08.2014 00:40 13,3 C 11,7 C 82 % 1014,3 hPa 0,0 l/m 0 min 0 min 0,0 UV-I 0 W/m 24,7 km/h (4 Bft)
22.08.2014 00:42 13,2 C 11,7 C 82 % 1014,3 hPa 0,0 l/m 0 min 0 min 0,0 UV-I 0 W/m 24,7 km/h (4 Bft)
22.08.2014 00:44 13,2 C 11,7 C 82 % 1014,3 hPa 0,0 l/m 0 min 0 min 0,0 UV-I 0 W/m 21,3 km/h (4 Bft)
22.08.2014 00:46 13,2 C 11,7 C 82 % 1014,3 hPa 0,0 l/m 0 min 0 min 0,0 UV-I 0 W/m 14,2 km/h (3 Bft)
22.08.2014 00:48 13,2 C 11,7 C 82 % 1014,3 hPa 0,0 l/m 0 min 0 min 0,0 UV-I 0 W/m 14,2 km/h (3 Bft)
22.08.2014 00:50 13,1 C 11,7 C 83 % 1014,3 hPa 0,0 l/m 0 min 0 min 0,0 UV-I 0 W/m 17,7 km/h (3 Bft)
22.08.2014 00:52 13,1 C 11,7 C 82 % 1014,2 hPa 0,0 l/m 0 min 0 min 0,0 UV-I 0 W/m 17,7 km/h (3 Bft)
22.08.2014 00:54 13,0 C 11,7 C 83 % 1014,2 hPa 0,0 l/m 0 min 0 min 0,0 UV-I 0 W/m 10,7 km/h (2 Bft)
22.08.2014 00:56 13,0 C 11,7 C 83 % 1014,2 hPa 0,0 l/m 0 min 0 min 0,0 UV-I 0 W/m 21,3 km/h (4 Bft)
22.08.2014 00:58 13,0 C 11,7 C 83 % 1014,3 hPa 0,0 l/m 0 min 0 min 0,0 UV-I 0 W/m 21,3 km/h (4 Bft)
22.08.2014 01:00 13,1 C 11,7 C 83 % 1014,2 hPa 0,0 l/m 0 min 0 min 0,0 UV-I 0 W/m 17,7 km/h (3 Bft)
22.08.2014 01:02 13,1 C 11,7 C 83 % 1014,2 hPa 0,0 l/m 0 min 0 min 0,0 UV-I 0 W/m 17,7 km/h (3 Bft)
22.08.2014 01:04 13,1 C 11,7 C 83 % 1014,2 hPa 0,0 l/m 0 min 0 min 0,0 UV-I 0 W/m 10,7 km/h (2 Bft)
22.08.2014 01:06 13,0 C 11,7 C 83 % 1014,1 hPa 0,0 l/m 0 min 0 min 0,0 UV-I 0 W/m 0,0 km/h (0 Bft)
22.08.2014 01:08 12,9 C 11,7 C 83 % 1014,2 hPa 0,0 l/m 0 min 0 min 0,0 UV-I 0 W/m 14,2 km/h (3 Bft)
22.08.2014 01:10 12,9 C 11,7 C 83 % 1014,1 hPa 0,0 l/m 0 min 0 min 0,0 UV-I 0 W/m 17,7 km/h (3 Bft)
22.08.2014 01:12 12,8 C 11,7 C 83 % 1014,1 hPa 0,0 l/m 0 min 0 min 0,0 UV-I 0 W/m 14,2 km/h (3 Bft)
22.08.2014 01:14 12,8 C 11,7 C 84 % 1014,1 hPa 0,0 l/m 0 min 0 min 0,0 UV-I 0 W/m 17,7 km/h (3 Bft)
22.08.2014 01:16 12,8 C 11,7 C 84 % 1014,1 hPa 0,0 l/m 0 min 0 min 0,0 UV-I 0 W/m 14,2 km/h (3 Bft)
22.08.2014 01:18 12,8 C 11,7 C 84 % 1014,2 hPa 0,0 l/m 0 min 0 min 0,0 UV-I 0 W/m 14,2 km/h (3 Bft)
22.08.2014 01:20 12,8 C 11,7 C 84 % 1014,1 hPa 0,0 l/m 0 min 0 min 0,0 UV-I 0 W/m 21,3 km/h (4 Bft)
22.08.2014 01:22 12,7 C 11,7 C 84 % 1014,0 hPa 0,0 l/m 0 min 0 min 0,0 UV-I 0 W/m 17,7 km/h (3 Bft)
22.08.2014 01:24 12,7 C 11,1 C 84 % 1014,0 hPa 0,0 l/m 0 min 0 min 0,0 UV-I 0 W/m 10,7 km/h (2 Bft)
22.08.2014 01:26 12,6 C 11,1 C 84 % 1014,0 hPa 0,0 l/m 0 min 0 min 0,0 UV-I 0 W/m 10,7 km/h (2 Bft)
22.08.2014 01:28 12,6 C 11,1 C 85 % 1014,0 hPa 0,0 l/m 0 min 0 min 0,0 UV-I 0 W/m 17,7 km/h (3 Bft)
22.08.2014 01:30 12,6 C 11,1 C 85 % 1014,0 hPa 0,0 l/m 0 min 0 min 0,0 UV-I 0 W/m 14,2 km/h (3 Bft)
22.08.2014 01:32 12,6 C 11,1 C 85 % 1014,0 hPa 0,0 l/m 0 min 0 min 0,0 UV-I 0 W/m 7,1 km/h (2 Bft)
22.08.2014 01:34 12,6 C 11,1 C 85 % 1014,0 hPa 0,0 l/m 0 min 0 min 0,0 UV-I 0 W/m 17,7 km/h (3 Bft)
22.08.2014 01:36 12,5 C 11,1 C 85 % 1014,0 hPa 0,0 l/m 0 min 0 min 0,0 UV-I 0 W/m 14,2 km/h (3 Bft)
22.08.2014 01:38 12,5 C 11,1 C 85 % 1014,0 hPa 0,0 l/m 0 min 0 min 0,0 UV-I 0 W/m 24,7 km/h (4 Bft)
22.08.2014 01:40 12,5 C 11,1 C 85 % 1014,0 hPa 0,0 l/m 0 min 0 min 0,0 UV-I 0 W/m 24,7 km/h (4 Bft)
22.08.2014 01:42 12,5 C 11,1 C 85 % 1014,0 hPa 0,0 l/m 0 min 0 min 0,0 UV-I 0 W/m 17,7 km/h (3 Bft)
22.08.2014 01:44 12,5 C 11,1 C 85 % 1014,0 hPa 0,0 l/m 0 min 0 min 0,0 UV-I 0 W/m 21,3 km/h (4 Bft)
22.08.2014 01:46 12,5 C 11,1 C 85 % 1014,0 hPa 0,0 l/m 0 min 0 min 0,0 UV-I 0 W/m 24,7 km/h (4 Bft)
22.08.2014 01:48 12,5 C 11,1 C 85 % 1014,0 hPa 0,0 l/m 0 min 0 min 0,0 UV-I 0 W/m 14,2 km/h (3 Bft)
22.08.2014 01:50 12,6 C 11,1 C 85 % 1014,0 hPa 0,0 l/m 0 min 0 min 0,0 UV-I 0 W/m 17,7 km/h (3 Bft)
22.08.2014 01:52 12,6 C 11,1 C 85 % 1014,0 hPa 0,0 l/m 0 min 0 min 0,0 UV-I 0 W/m 10,7 km/h (2 Bft)
22.08.2014 01:54 12,5 C 11,1 C 85 % 1013,9 hPa 0,0 l/m 0 min 0 min 0,0 UV-I 0 W/m 14,2 km/h (3 Bft)
22.08.2014 01:56 12,5 C 11,1 C 85 % 1014,0 hPa 0,0 l/m 0 min 0 min 0,0 UV-I 0 W/m 17,7 km/h (3 Bft)
22.08.2014 01:58 12,4 C 11,1 C 85 % 1013,9 hPa 0,0 l/m 0 min 0 min 0,0 UV-I 0 W/m 17,7 km/h (3 Bft)
22.08.2014 02:00 12,4 C 11,1 C 86 % 1013,9 hPa 0,0 l/m 0 min 0 min 0,0 UV-I 0 W/m 17,7 km/h (3 Bft)
22.08.2014 02:02 12,4 C 11,1 C 86 % 1013,9 hPa 0,0 l/m 0 min 0 min 0,0 UV-I 0 W/m 17,7 km/h (3 Bft)
22.08.2014 02:04 12,4 C 11,1 C 86 % 1013,9 hPa 0,0 l/m 0 min 0 min 0,0 UV-I 0 W/m 14,2 km/h (3 Bft)
22.08.2014 02:06 12,4 C 11,1 C 86 % 1013,9 hPa 0,0 l/m 0 min 0 min 0,0 UV-I 0 W/m 14,2 km/h (3 Bft)
22.08.2014 02:08 12,4 C 11,1 C 86 % 1013,9 hPa 0,0 l/m 0 min 0 min 0,0 UV-I 0 W/m 10,7 km/h (2 Bft)
22.08.2014 02:10 12,3 C 11,1 C 86 % 1013,9 hPa 0,0 l/m 0 min 0 min 0,0 UV-I 0 W/m 21,3 km/h (4 Bft)
22.08.2014 02:12 12,3 C 11,1 C 86 % 1013,9 hPa 0,0 l/m 0 min 0 min 0,0 UV-I 0 W/m 17,7 km/h (3 Bft)
22.08.2014 02:14 12,3 C 11,1 C 86 % 1013,9 hPa 0,0 l/m 0 min 0 min 0,0 UV-I 0 W/m 10,7 km/h (2 Bft)
22.08.2014 02:16 12,2 C 11,1 C 86 % 1013,9 hPa 0,0 l/m 0 min 0 min 0,0 UV-I 0 W/m 17,7 km/h (3 Bft)
22.08.2014 02:18 12,2 C 11,1 C 86 % 1013,8 hPa 0,0 l/m 0 min 0 min 0,0 UV-I 0 W/m 17,7 km/h (3 Bft)
22.08.2014 02:20 12,1 C 10,6 C 86 % 1013,9 hPa 0,0 l/m 0 min 0 min 0,0 UV-I 0 W/m 10,7 km/h (2 Bft)
22.08.2014 02:22 12,1 C 10,6 C 87 % 1013,8 hPa 0,0 l/m 0 min 0 min 0,0 UV-I 0 W/m 14,2 km/h (3 Bft)
22.08.2014 02:24 12,1 C 10,6 C 87 % 1013,9 hPa 0,0 l/m 0 min 0 min 0,0 UV-I 0 W/m 17,7 km/h (3 Bft)
22.08.2014 02:26 12,1 C 10,6 C 87 % 1013,9 hPa 0,0 l/m 0 min 0 min 0,0 UV-I 0 W/m 14,2 km/h (3 Bft)
22.08.2014 02:28 12,1 C 10,6 C 87 % 1013,9 hPa 0,0 l/m 0 min 0 min 0,0 UV-I 0 W/m 14,2 km/h (3 Bft)
22.08.2014 02:30 12,1 C 10,6 C 87 % 1013,9 hPa 0,0 l/m 0 min 0 min 0,0 UV-I 0 W/m 7,1 km/h (2 Bft)
22.08.2014 02:32 12,1 C 10,6 C 87 % 1013,8 hPa 0,0 l/m 0 min 0 min 0,0 UV-I 0 W/m 10,7 km/h (2 Bft)
22.08.2014 02:34 12,1 C 10,6 C 87 % 1013,8 hPa 0,0 l/m 0 min 0 min 0,0 UV-I 0 W/m 10,7 km/h (2 Bft)
22.08.2014 02:36 12,0 C 10,6 C 87 % 1013,8 hPa 0,0 l/m 0 min 0 min 0,0 UV-I 0 W/m 14,2 km/h (3 Bft)
22.08.2014 02:38 11,9 C 10,6 C 87 % 1013,8 hPa 0,0 l/m 0 min 0 min 0,0 UV-I 0 W/m 14,2 km/h (3 Bft)
22.08.2014 02:40 11,9 C 10,6 C 87 % 1013,8 hPa 0,0 l/m 0 min 0 min 0,0 UV-I 0 W/m 14,2 km/h (3 Bft)
22.08.2014 02:42 11,9 C 10,6 C 87 % 1013,8 hPa 0,0 l/m 0 min 0 min 0,0 UV-I 0 W/m 14,2 km/h (3 Bft)
22.08.2014 02:44 11,9 C 10,6 C 87 % 1013,8 hPa 0,0 l/m 0 min 0 min 0,0 UV-I 0 W/m 10,7 km/h (2 Bft)
22.08.2014 02:46 11,9 C 10,6 C 87 % 1013,7 hPa 0,0 l/m 0 min 0 min 0,0 UV-I 0 W/m 10,7 km/h (2 Bft)
22.08.2014 02:48 11,9 C 10,6 C 87 % 1013,7 hPa 0,0 l/m 0 min 0 min 0,0 UV-I 0 W/m 14,2 km/h (3 Bft)
22.08.2014 02:50 12,0 C 10,6 C 87 % 1013,7 hPa 0,0 l/m 0 min 0 min 0,0 UV-I 0 W/m 14,2 km/h (3 Bft)
22.08.2014 02:52 12,0 C 10,6 C 87 % 1013,7 hPa 0,0 l/m 0 min 0 min 0,0 UV-I 0 W/m 17,7 km/h (3 Bft)
22.08.2014 02:54 12,0 C 10,6 C 87 % 1013,7 hPa 0,0 l/m 0 min 0 min 0,0 UV-I 0 W/m 28,2 km/h (4 Bft)
22.08.2014 02:56 12,0 C 10,6 C 87 % 1013,7 hPa 0,0 l/m 0 min 0 min 0,0 UV-I 0 W/m 10,7 km/h (2 Bft)
22.08.2014 02:58 12,0 C 10,6 C 87 % 1013,6 hPa 0,0 l/m 0 min 0 min 0,0 UV-I 0 W/m 0,0 km/h (0 Bft)
22.08.2014 03:00 12,0 C 10,6 C 87 % 1013,7 hPa 0,0 l/m 0 min 0 min 0,0 UV-I 0 W/m 21,3 km/h (4 Bft)
22.08.2014 03:02 12,1 C 10,6 C 86 % 1013,6 hPa 0,0 l/m 0 min 0 min 0,0 UV-I 0 W/m 14,2 km/h (3 Bft)
22.08.2014 03:04 12,1 C 10,6 C 87 % 1013,7 hPa 0,0 l/m 0 min 0 min 0,0 UV-I 0 W/m 14,2 km/h (3 Bft)
22.08.2014 03:06 12,1 C 10,6 C 86 % 1013,6 hPa 0,0 l/m 0 min 0 min 0,0 UV-I 0 W/m 17,7 km/h (3 Bft)
22.08.2014 03:08 12,1 C 10,6 C 86 % 1013,6 hPa 0,0 l/m 0 min 0 min 0,0 UV-I 0 W/m 10,7 km/h (2 Bft)
22.08.2014 03:10 12,1 C 10,6 C 86 % 1013,6 hPa 0,0 l/m 0 min 0 min 0,0 UV-I 0 W/m 17,7 km/h (3 Bft)
22.08.2014 03:12 12,1 C 10,6 C 86 % 1013,6 hPa 0,0 l/m 0 min 0 min 0,0 UV-I 0 W/m 24,7 km/h (4 Bft)
22.08.2014 03:14 12,2 C 10,6 C 86 % 1013,6 hPa 0,0 l/m 0 min 0 min 0,0 UV-I 0 W/m 7,1 km/h (2 Bft)
22.08.2014 03:16 12,2 C 11,1 C 86 % 1013,5 hPa 0,0 l/m 0 min 0 min 0,0 UV-I 0 W/m 7,1 km/h (2 Bft)
22.08.2014 03:18 12,2 C 11,1 C 86 % 1013,5 hPa 0,0 l/m 0 min 0 min 0,0 UV-I 0 W/m 14,2 km/h (3 Bft)
22.08.2014 03:20 12,2 C 11,1 C 86 % 1013,5 hPa 0,0 l/m 0 min 0 min 0,0 UV-I 0 W/m 7,1 km/h (2 Bft)
22.08.2014 03:22 12,3 C 11,1 C 86 % 1013,5 hPa 0,0 l/m 0 min 0 min 0,0 UV-I 0 W/m 7,1 km/h (2 Bft)
22.08.2014 03:24 12,3 C 11,1 C 86 % 1013,5 hPa 0,0 l/m 0 min 0 min 0,0 UV-I 0 W/m 10,7 km/h (2 Bft)
22.08.2014 03:26 12,3 C 11,1 C 86 % 1013,5 hPa 0,0 l/m 0 min 0 min 0,0 UV-I 0 W/m 21,3 km/h (4 Bft)
22.08.2014 03:28 12,3 C 11,1 C 86 % 1013,5 hPa 0,0 l/m 0 min 0 min 0,0 UV-I 0 W/m 10,7 km/h (2 Bft)
22.08.2014 03:30 12,3 C 11,1 C 86 % 1013,4 hPa 0,0 l/m 0 min 0 min 0,0 UV-I 0 W/m 0,0 km/h (0 Bft)
22.08.2014 03:32 12,4 C 11,1 C 86 % 1013,5 hPa 0,0 l/m 0 min 0 min 0,0 UV-I 0 W/m 3,5 km/h (1 Bft)
22.08.2014 03:34 12,4 C 11,1 C 85 % 1013,4 hPa 0,0 l/m 0 min 0 min 0,0 UV-I 0 W/m 0,0 km/h (0 Bft)
22.08.2014 03:36 12,4 C 11,1 C 85 % 1013,4 hPa 0,0 l/m 0 min 0 min 0,0 UV-I 0 W/m 14,2 km/h (3 Bft)
22.08.2014 03:38 12,4 C 11,1 C 85 % 1013,4 hPa 0,0 l/m 0 min 0 min 0,0 UV-I 0 W/m 14,2 km/h (3 Bft)
22.08.2014 03:40 12,4 C 11,1 C 85 % 1013,4 hPa 0,0 l/m 0 min 0 min 0,0 UV-I 0 W/m 17,7 km/h (3 Bft)
22.08.2014 03:42 12,5 C 11,1 C 85 % 1013,4 hPa 0,0 l/m 0 min 0 min 0,0 UV-I 0 W/m 21,3 km/h (4 Bft)
22.08.2014 03:44 12,5 C 11,1 C 85 % 1013,3 hPa 0,0 l/m 0 min 0 min 0,0 UV-I 0 W/m 10,7 km/h (2 Bft)
22.08.2014 03:46 12,6 C 11,1 C 85 % 1013,3 hPa 0,0 l/m 0 min 0 min 0,0 UV-I 0 W/m 3,5 km/h (1 Bft)
22.08.2014 03:48 12,6 C 11,1 C 85 % 1013,3 hPa 0,0 l/m 0 min 0 min 0,0 UV-I 0 W/m 21,3 km/h (4 Bft)
22.08.2014 03:50 12,6 C 11,1 C 85 % 1013,3 hPa 0,0 l/m 0 min 0 min 0,0 UV-I 0 W/m 17,7 km/h (3 Bft)
22.08.2014 03:52 12,6 C 11,7 C 85 % 1013,4 hPa 0,0 l/m 0 min 0 min 0,0 UV-I 0 W/m 14,2 km/h (3 Bft)
22.08.2014 03:54 12,7 C 11,7 C 85 % 1013,3 hPa 0,0 l/m 0 min 0 min 0,0 UV-I 0 W/m 17,7 km/h (3 Bft)
22.08.2014 03:56 12,7 C 11,7 C 84 % 1013,3 hPa 0,0 l/m 0 min 0 min 0,0 UV-I 0 W/m 17,7 km/h (3 Bft)
22.08.2014 03:58 12,7 C 11,7 C 84 % 1013,3 hPa 0,0 l/m 0 min 0 min 0,0 UV-I 0 W/m 21,3 km/h (4 Bft)
22.08.2014 04:00 12,7 C 11,7 C 84 % 1013,3 hPa 0,0 l/m 0 min 0 min 0,0 UV-I 0 W/m 14,2 km/h (3 Bft)
22.08.2014 04:02 12,7 C 11,7 C 84 % 1013,3 hPa 0,0 l/m 0 min 0 min 0,0 UV-I 0 W/m 10,7 km/h (2 Bft)
22.08.2014 04:04 12,7 C 11,1 C 84 % 1013,3 hPa 0,0 l/m 0 min 0 min 0,0 UV-I 0 W/m 24,7 km/h (4 Bft)
22.08.2014 04:06 12,7 C 11,1 C 84 % 1013,3 hPa 0,0 l/m 0 min 0 min 0,0 UV-I 0 W/m 21,3 km/h (4 Bft)
22.08.2014 04:08 12,7 C 11,7 C 84 % 1013,3 hPa 0,0 l/m 0 min 0 min 0,0 UV-I 0 W/m 17,7 km/h (3 Bft)
22.08.2014 04:10 12,7 C 11,7 C 84 % 1013,2 hPa 0,0 l/m 0 min 0 min 0,0 UV-I 0 W/m 24,7 km/h (4 Bft)
22.08.2014 04:12 12,7 C 11,7 C 84 % 1013,2 hPa 0,0 l/m 0 min 0 min 0,0 UV-I 0 W/m 21,3 km/h (4 Bft)
22.08.2014 04:14 12,7 C 11,7 C 84 % 1013,2 hPa 0,0 l/m 0 min 0 min 0,0 UV-I 0 W/m 21,3 km/h (4 Bft)
22.08.2014 04:16 12,7 C 11,1 C 84 % 1013,2 hPa 0,0 l/m 0 min 0 min 0,0 UV-I 0 W/m 24,7 km/h (4 Bft)
22.08.2014 04:18 12,7 C 11,1 C 84 % 1013,1 hPa 0,0 l/m 0 min 0 min 0,0 UV-I 0 W/m 21,3 km/h (4 Bft)
22.08.2014 04:20 12,7 C 11,1 C 84 % 1013,1 hPa 0,0 l/m 0 min 0 min 0,0 UV-I 0 W/m 14,2 km/h (3 Bft)
22.08.2014 04:22 12,7 C 11,1 C 84 % 1013,1 hPa 0,0 l/m 0 min 0 min 0,0 UV-I 0 W/m 21,3 km/h (4 Bft)
22.08.2014 04:24 12,7 C 11,1 C 84 % 1013,2 hPa 0,0 l/m 0 min 0 min 0,0 UV-I 0 W/m 7,1 km/h (2 Bft)
22.08.2014 04:26 12,6 C 11,1 C 84 % 1013,2 hPa 0,0 l/m 0 min 0 min 0,0 UV-I 0 W/m 10,7 km/h (2 Bft)
22.08.2014 04:28 12,5 C 11,1 C 84 % 1013,1 hPa 0,0 l/m 0 min 0 min 0,0 UV-I 0 W/m 17,7 km/h (3 Bft)
22.08.2014 04:30 12,5 C 11,1 C 84 % 1013,0 hPa 0,0 l/m 0 min 0 min 0,0 UV-I 0 W/m 17,7 km/h (3 Bft)
22.08.2014 04:32 12,5 C 11,1 C 84 % 1013,1 hPa 0,0 l/m 0 min 0 min 0,0 UV-I 0 W/m 24,7 km/h (4 Bft)
22.08.2014 04:34 12,4 C 11,1 C 84 % 1013,1 hPa 0,0 l/m 0 min 0 min 0,0 UV-I 0 W/m 21,3 km/h (4 Bft)
22.08.2014 04:36 12,4 C 11,1 C 85 % 1013,0 hPa 0,0 l/m 0 min 0 min 0,0 UV-I 0 W/m 17,7 km/h (3 Bft)
22.08.2014 04:38 12,4 C 11,1 C 85 % 1013,0 hPa 0,0 l/m 0 min 0 min 0,0 UV-I 0 W/m 24,7 km/h (4 Bft)
22.08.2014 04:40 12,4 C 11,1 C 85 % 1013,1 hPa 0,0 l/m 0 min 0 min 0,0 UV-I 0 W/m 17,7 km/h (3 Bft)
22.08.2014 04:42 12,4 C 11,1 C 85 % 1013,0 hPa 0,0 l/m 0 min 0 min 0,0 UV-I 0 W/m 17,7 km/h (3 Bft)
22.08.2014 04:44 12,4 C 11,1 C 85 % 1013,0 hPa 0,0 l/m 0 min 0 min 0,0 UV-I 0 W/m 14,2 km/h (3 Bft)
22.08.2014 04:46 12,4 C 11,1 C 85 % 1013,0 hPa 0,0 l/m 0 min 0 min 0,0 UV-I 0 W/m 14,2 km/h (3 Bft)
22.08.2014 04:48 12,3 C 11,1 C 85 % 1013,0 hPa 0,0 l/m 0 min 0 min 0,0 UV-I 0 W/m 14,2 km/h (3 Bft)
22.08.2014 04:50 12,3 C 11,1 C 85 % 1013,0 hPa 0,0 l/m 0 min 0 min 0,0 UV-I 0 W/m 14,2 km/h (3 Bft)
22.08.2014 04:52 12,3 C 11,1 C 85 % 1012,9 hPa 0,0 l/m 0 min 0 min 0,0 UV-I 0 W/m 21,3 km/h (4 Bft)
22.08.2014 04:54 12,3 C 11,1 C 85 % 1012,9 hPa 0,0 l/m 0 min 0 min 0,0 UV-I 0 W/m 21,3 km/h (4 Bft)
22.08.2014 04:56 12,3 C 11,1 C 85 % 1012,9 hPa 0,0 l/m 0 min 0 min 0,0 UV-I 0 W/m 21,3 km/h (4 Bft)
22.08.2014 04:58 12,3 C 10,6 C 85 % 1012,9 hPa 0,0 l/m 0 min 0 min 0,0 UV-I 0 W/m 7,1 km/h (2 Bft)
22.08.2014 05:00 12,3 C 10,6 C 85 % 1012,9 hPa 0,0 l/m 0 min 0 min 0,0 UV-I 0 W/m 24,7 km/h (4 Bft)
22.08.2014 05:02 12,3 C 10,6 C 86 % 1012,9 hPa 0,0 l/m 0 min 0 min 0,0 UV-I 0 W/m 14,2 km/h (3 Bft)
22.08.2014 05:04 12,2 C 10,6 C 86 % 1013,0 hPa 0,0 l/m 0 min 0 min 0,0 UV-I 0 W/m 10,7 km/h (2 Bft)
22.08.2014 05:06 12,2 C 10,6 C 86 % 1012,9 hPa 0,0 l/m 0 min 0 min 0,0 UV-I 0 W/m 17,7 km/h (3 Bft)
22.08.2014 05:08 12,2 C 10,6 C 86 % 1012,9 hPa 0,0 l/m 0 min 0 min 0,0 UV-I 0 W/m 10,7 km/h (2 Bft)
22.08.2014 05:10 12,1 C 10,6 C 86 % 1012,9 hPa 0,0 l/m 0 min 0 min 0,0 UV-I 0 W/m 17,7 km/h (3 Bft)
22.08.2014 05:12 12,1 C 10,6 C 87 % 1012,9 hPa 0,0 l/m 0 min 0 min 0,0 UV-I 0 W/m 21,3 km/h (4 Bft)
22.08.2014 05:14 12,1 C 10,6 C 87 % 1012,9 hPa 0,0 l/m 0 min 0 min 0,0 UV-I 0 W/m 14,2 km/h (3 Bft)
22.08.2014 05:16 12,1 C 10,6 C 87 % 1012,9 hPa 0,0 l/m 0 min 0 min 0,0 UV-I 0 W/m 14,2 km/h (3 Bft)
22.08.2014 05:18 12,1 C 10,6 C 87 % 1012,9 hPa 0,0 l/m 0 min 0 min 0,0 UV-I 0 W/m 10,7 km/h (2 Bft)
22.08.2014 05:20 11,9 C 10,6 C 87 % 1012,9 hPa 0,0 l/m 0 min 0 min 0,0 UV-I 0 W/m 14,2 km/h (3 Bft)
22.08.2014 05:22 11,9 C 10,6 C 87 % 1012,9 hPa 0,0 l/m 0 min 0 min 0,0 UV-I 0 W/m 14,2 km/h (3 Bft)
22.08.2014 05:24 11,9 C 10,6 C 87 % 1012,8 hPa 0,0 l/m 0 min 0 min 0,0 UV-I 0 W/m 14,2 km/h (3 Bft)
22.08.2014 05:26 11,9 C 10,6 C 87 % 1012,9 hPa 0,0 l/m 0 min 0 min 0,0 UV-I 0 W/m 17,7 km/h (3 Bft)
22.08.2014 05:28 11,8 C 10,6 C 87 % 1012,8 hPa 0,0 l/m 0 min 0 min 0,0 UV-I 0 W/m 14,2 km/h (3 Bft)
22.08.2014 05:30 11,8 C 10,6 C 88 % 1012,8 hPa 0,0 l/m 0 min 0 min 0,0 UV-I 0 W/m 21,3 km/h (4 Bft)
22.08.2014 05:32 11,8 C 10,6 C 88 % 1012,8 hPa 0,0 l/m 0 min 0 min 0,0 UV-I 0 W/m 21,3 km/h (4 Bft)
22.08.2014 05:34 11,8 C 10,6 C 88 % 1012,8 hPa 0,0 l/m 0 min 0 min 0,0 UV-I 0 W/m 17,7 km/h (3 Bft)
22.08.2014 05:36 11,7 C 10,6 C 88 % 1012,8 hPa 0,0 l/m 0 min 0 min 0,0 UV-I 0 W/m 14,2 km/h (3 Bft)
22.08.2014 05:38 11,7 C 10,6 C 88 % 1012,7 hPa 0,0 l/m 0 min 0 min 0,0 UV-I 0 W/m 17,7 km/h (3 Bft)
22.08.2014 05:40 11,7 C 10,0 C 88 % 1012,7 hPa 0,0 l/m 0 min 0 min 0,0 UV-I 0 W/m 10,7 km/h (2 Bft)
22.08.2014 05:42 11,6 C 10,0 C 88 % 1012,7 hPa 0,0 l/m 0 min 0 min 0,0 UV-I 0 W/m 14,2 km/h (3 Bft)
22.08.2014 05:44 11,6 C 10,0 C 88 % 1012,7 hPa 0,0 l/m 0 min 0 min 0,0 UV-I 0 W/m 14,2 km/h (3 Bft)
22.08.2014 05:46 11,6 C 10,0 C 88 % 1012,7 hPa 0,0 l/m 0 min 0 min 0,0 UV-I 0 W/m 14,2 km/h (3 Bft)
22.08.2014 05:48 11,6 C 10,0 C 88 % 1012,7 hPa 0,0 l/m 0 min 0 min 0,0 UV-I 0 W/m 10,7 km/h (2 Bft)
22.08.2014 05:50 11,6 C 10,0 C 88 % 1012,6 hPa 0,0 l/m 0 min 0 min 0,0 UV-I 0 W/m 21,3 km/h (4 Bft)
22.08.2014 05:52 11,5 C 10,0 C 88 % 1012,6 hPa 0,0 l/m 0 min 0 min 0,0 UV-I 0 W/m 14,2 km/h (3 Bft)
22.08.2014 05:54 11,5 C 10,0 C 88 % 1012,6 hPa 0,0 l/m 0 min 0 min 0,0 UV-I 0 W/m 7,1 km/h (2 Bft)
22.08.2014 05:56 11,4 C 10,0 C 88 % 1012,5 hPa 0,0 l/m 0 min 0 min 0,0 UV-I 0 W/m 10,7 km/h (2 Bft)
22.08.2014 05:58 11,4 C 10,0 C 89 % 1012,5 hPa 0,0 l/m 0 min 0 min 0,0 UV-I 0 W/m 14,2 km/h (3 Bft)
22.08.2014 06:00 11,4 C 10,0 C 89 % 1012,6 hPa 0,0 l/m 0 min 0 min 0,0 UV-I 0 W/m 10,7 km/h (2 Bft)
22.08.2014 06:02 11,4 C 10,0 C 89 % 1012,6 hPa 0,0 l/m 0 min 0 min 0,0 UV-I 0 W/m 10,7 km/h (2 Bft)
22.08.2014 06:06 11,4 C 10,0 C 89 % 1012,6 hPa 0,0 l/m 0 min 0 min 0,0 UV-I 0 W/m 10,7 km/h (2 Bft)
22.08.2014 06:08 11,4 C 10,0 C 89 % 1012,5 hPa 0,0 l/m 0 min 0 min 0,0 UV-I 0 W/m 0,0 km/h (0 Bft)
22.08.2014 06:10 11,3 C 10,0 C 89 % 1012,4 hPa 0,0 l/m 0 min 0 min 0,0 UV-I 0 W/m 14,2 km/h (3 Bft)
22.08.2014 06:12 11,4 C 10,0 C 89 % 1012,5 hPa 0,0 l/m 0 min 0 min 0,0 UV-I 0 W/m 7,1 km/h (2 Bft)
22.08.2014 06:14 11,3 C 10,0 C 89 % 1012,4 hPa 0,0 l/m 0 min 0 min 0,0 UV-I 0 W/m 14,2 km/h (3 Bft)
22.08.2014 06:16 11,3 C 10,0 C 89 % 1012,5 hPa 0,0 l/m 0 min 0 min 0,0 UV-I 0 W/m 0,0 km/h (0 Bft)
22.08.2014 06:18 11,3 C 10,0 C 89 % 1012,4 hPa 0,0 l/m 0 min 0 min 0,0 UV-I 0 W/m 14,2 km/h (3 Bft)
22.08.2014 06:20 11,3 C 10,0 C 89 % 1012,4 hPa 0,0 l/m 0 min 0 min 0,0 UV-I 0 W/m 17,7 km/h (3 Bft)
22.08.2014 06:22 11,2 C 10,0 C 89 % 1012,4 hPa 0,0 l/m 0 min 0 min 0,0 UV-I 0 W/m 21,3 km/h (4 Bft)
22.08.2014 06:24 11,2 C 10,0 C 89 % 1012,4 hPa 0,0 l/m 0 min 0 min 0,0 UV-I 0 W/m 17,7 km/h (3 Bft)
22.08.2014 06:26 11,2 C 10,0 C 89 % 1012,3 hPa 0,0 l/m 0 min 0 min 0,0 UV-I 0 W/m 21,3 km/h (4 Bft)
22.08.2014 06:28 11,2 C 10,0 C 89 % 1012,4 hPa 0,0 l/m 0 min 0 min 0,0 UV-I 0 W/m 21,3 km/h (4 Bft)
22.08.2014 06:30 11,2 C 10,0 C 89 % 1012,4 hPa 0,0 l/m 0 min 0 min 0,0 UV-I 0 W/m 21,3 km/h (4 Bft)
22.08.2014 06:32 11,2 C 10,0 C 89 % 1012,4 hPa 0,0 l/m 0 min 0 min 0,0 UV-I 0 W/m 14,2 km/h (3 Bft)
22.08.2014 06:34 11,3 C 10,0 C 89 % 1012,4 hPa 0,0 l/m 0 min 0 min 0,0 UV-I 0 W/m 28,2 km/h (4 Bft)
22.08.2014 06:36 11,3 C 10,0 C 89 % 1012,3 hPa 0,0 l/m 0 min 0 min 0,0 UV-I 0 W/m 24,7 km/h (4 Bft)
22.08.2014 06:38 11,3 C 10,0 C 89 % 1012,3 hPa 0,0 l/m 0 min 0 min 0,0 UV-I 7 W/m 10,7 km/h (2 Bft)
22.08.2014 06:40 11,3 C 10,0 C 89 % 1012,3 hPa 0,0 l/m 0 min 0 min 0,0 UV-I 9 W/m 14,2 km/h (3 Bft)
22.08.2014 06:42 11,3 C 10,0 C 89 % 1012,3 hPa 0,0 l/m 0 min 0 min 0,0 UV-I 11 W/m 14,2 km/h (3 Bft)
22.08.2014 06:44 11,3 C 10,0 C 89 % 1012,3 hPa 0,0 l/m 0 min 0 min 0,0 UV-I 12 W/m 17,7 km/h (3 Bft)
22.08.2014 06:46 11,3 C 10,0 C 89 % 1012,3 hPa 0,0 l/m 2 min 0 min 0,0 UV-I 14 W/m 21,3 km/h (4 Bft)
22.08.2014 06:48 11,3 C 10,0 C 89 % 1012,3 hPa 0,0 l/m 0 min 0 min 0,0 UV-I 14 W/m 21,3 km/h (4 Bft)
22.08.2014 06:50 11,3 C 10,0 C 89 % 1012,2 hPa 0,0 l/m 0 min 0 min 0,0 UV-I 16 W/m 24,7 km/h (4 Bft)
22.08.2014 06:52 11,3 C 10,0 C 88 % 1012,2 hPa 0,0 l/m 0 min 0 min 0,0 UV-I 19 W/m 21,3 km/h (4 Bft)
22.08.2014 06:54 11,4 C 10,0 C 88 % 1012,2 hPa 0,0 l/m 0 min 0 min 0,0 UV-I 21 W/m 24,7 km/h (4 Bft)
22.08.2014 06:56 11,4 C 10,0 C 88 % 1012,2 hPa 0,0 l/m 2 min 0 min 0,0 UV-I 25 W/m 21,3 km/h (4 Bft)
22.08.2014 06:58 11,4 C 10,0 C 88 % 1012,3 hPa 0,0 l/m 0 min 0 min 0,0 UV-I 26 W/m 24,7 km/h (4 Bft)
22.08.2014 07:00 11,3 C 10,0 C 88 % 1012,3 hPa 0,0 l/m 0 min 0 min 0,0 UV-I 29 W/m 24,7 km/h (4 Bft)
22.08.2014 07:02 11,4 C 10,0 C 88 % 1012,3 hPa 0,0 l/m 2 min 0 min 0,0 UV-I 40 W/m 31,7 km/h (5 Bft)
22.08.2014 07:04 11,4 C 10,6 C 88 % 1012,3 hPa 0,0 l/m 2 min 0 min 0,0 UV-I 56 W/m 24,7 km/h (4 Bft)
22.08.2014 07:06 11,4 C 10,6 C 88 % 1012,3 hPa 0,0 l/m 2 min 0 min 0,0 UV-I 54 W/m 24,7 km/h (4 Bft)
22.08.2014 07:08 11,5 C 10,6 C 88 % 1012,3 hPa 0,0 l/m 2 min 0 min 0,0 UV-I 43 W/m 24,7 km/h (4 Bft)
22.08.2014 07:10 11,6 C 10,6 C 88 % 1012,2 hPa 0,0 l/m 0 min 0 min 0,0 UV-I 36 W/m 24,7 km/h (4 Bft)
22.08.2014 07:12 11,6 C 10,6 C 88 % 1012,2 hPa 0,0 l/m 0 min 0 min 0,0 UV-I 36 W/m 28,2 km/h (4 Bft)
22.08.2014 07:14 11,7 C 10,6 C 88 % 1012,2 hPa 0,0 l/m 0 min 0 min 0,0 UV-I 38 W/m 24,7 km/h (4 Bft)
22.08.2014 07:16 11,7 C 10,6 C 88 % 1012,2 hPa 0,0 l/m 0 min 0 min 0,0 UV-I 42 W/m 24,7 km/h (4 Bft)
22.08.2014 07:18 11,8 C 11,1 C 88 % 1012,2 hPa 0,0 l/m 0 min 0 min 0,0 UV-I 45 W/m 24,7 km/h (4 Bft)
22.08.2014 07:20 11,8 C 11,1 C 88 % 1012,2 hPa 0,0 l/m 0 min 0 min 0,0 UV-I 46 W/m 28,2 km/h (4 Bft)
22.08.2014 07:22 11,9 C 11,1 C 87 % 1012,2 hPa 0,0 l/m 0 min 0 min 0,0 UV-I 49 W/m 24,7 km/h (4 Bft)
22.08.2014 07:24 11,9 C 11,1 C 87 % 1012,2 hPa 0,0 l/m 2 min 0 min 0,0 UV-I 86 W/m 21,3 km/h (4 Bft)
22.08.2014 07:26 12,0 C 11,1 C 87 % 1012,1 hPa 0,0 l/m 2 min 0 min 0,0 UV-I 99 W/m 24,7 km/h (4 Bft)
22.08.2014 07:28 12,1 C 11,1 C 87 % 1012,2 hPa 0,0 l/m 2 min 0 min 0,0 UV-I 86 W/m 24,7 km/h (4 Bft)
22.08.2014 07:30 12,1 C 11,1 C 87 % 1012,1 hPa 0,0 l/m 0 min 0 min 0,0 UV-I 38 W/m 24,7 km/h (4 Bft)
22.08.2014 07:32 12,2 C 11,1 C 87 % 1012,1 hPa 0,0 l/m 0 min 0 min 0,0 UV-I 34 W/m 24,7 km/h (4 Bft)
22.08.2014 07:34 12,2 C 11,1 C 86 % 1012,1 hPa 0,0 l/m 0 min 0 min 0,0 UV-I 33 W/m 21,3 km/h (4 Bft)
22.08.2014 07:36 12,2 C 11,1 C 86 % 1012,1 hPa 0,0 l/m 0 min 0 min 0,0 UV-I 36 W/m 21,3 km/h (4 Bft)
22.08.2014 07:38 12,3 C 11,1 C 86 % 1012,1 hPa 0,0 l/m 0 min 0 min 0,0 UV-I 39 W/m 24,7 km/h (4 Bft)
22.08.2014 07:40 12,3 C 11,1 C 86 % 1012,0 hPa 0,0 l/m 0 min 0 min 0,0 UV-I 41 W/m 21,3 km/h (4 Bft)
22.08.2014 07:42 12,3 C 11,7 C 86 % 1012,1 hPa 0,0 l/m 0 min 0 min 0,0 UV-I 45 W/m 21,3 km/h (4 Bft)
22.08.2014 07:44 12,4 C 11,7 C 86 % 1012,1 hPa 0,0 l/m 0 min 0 min 0,0 UV-I 51 W/m 24,7 km/h (4 Bft)
22.08.2014 07:46 12,4 C 11,7 C 86 % 1012,1 hPa 0,0 l/m 0 min 0 min 0,0 UV-I 59 W/m 24,7 km/h (4 Bft)
22.08.2014 07:48 12,4 C 11,7 C 86 % 1012,0 hPa 0,0 l/m 0 min 0 min 0,0 UV-I 68 W/m 28,2 km/h (4 Bft)
22.08.2014 07:50 12,5 C 11,7 C 85 % 1012,0 hPa 0,0 l/m 0 min 0 min 0,0 UV-I 69 W/m 24,7 km/h (4 Bft)
22.08.2014 07:52 12,6 C 11,7 C 85 % 1011,9 hPa 0,0 l/m 0 min 0 min 0,0 UV-I 73 W/m 24,7 km/h (4 Bft)
22.08.2014 07:54 12,6 C 11,7 C 85 % 1011,9 hPa 0,0 l/m 0 min 0 min 0,0 UV-I 87 W/m 24,7 km/h (4 Bft)
22.08.2014 07:56 12,7 C 11,7 C 85 % 1011,9 hPa 0,0 l/m 0 min 0 min 0,0 UV-I 99 W/m 24,7 km/h (4 Bft)
22.08.2014 07:58 12,7 C 12,2 C 85 % 1012,0 hPa 0,0 l/m 2 min 0 min 0,0 UV-I 110 W/m 28,2 km/h (4 Bft)
22.08.2014 08:00 12,8 C 12,2 C 85 % 1011,9 hPa 0,0 l/m 2 min 0 min 0,0 UV-I 119 W/m 35,4 km/h (5 Bft)
22.08.2014 08:02 12,9 C 12,2 C 85 % 1011,9 hPa 0,0 l/m 2 min 0 min 0,0 UV-I 112 W/m 14,2 km/h (3 Bft)
22.08.2014 08:04 13,0 C 12,2 C 85 % 1012,0 hPa 0,0 l/m 0 min 0 min 0,0 UV-I 98 W/m 21,3 km/h (4 Bft)
22.08.2014 08:06 13,0 C 12,2 C 84 % 1012,0 hPa 0,0 l/m 0 min 0 min 0,0 UV-I 80 W/m 24,7 km/h (4 Bft)
22.08.2014 08:08 13,1 C 12,2 C 83 % 1012,0 hPa 0,0 l/m 0 min 0 min 0,0 UV-I 76 W/m 14,2 km/h (3 Bft)
22.08.2014 08:10 13,1 C 12,2 C 84 % 1011,9 hPa 0,0 l/m 0 min 0 min 0,0 UV-I 77 W/m 17,7 km/h (3 Bft)
22.08.2014 08:12 13,2 C 12,2 C 83 % 1011,9 hPa 0,0 l/m 0 min 0 min 0,0 UV-I 75 W/m 7,1 km/h (2 Bft)
22.08.2014 08:14 13,2 C 12,2 C 83 % 1011,9 hPa 0,0 l/m 0 min 0 min 0,0 UV-I 69 W/m 14,2 km/h (3 Bft)
22.08.2014 08:16 13,2 C 12,2 C 83 % 1011,9 hPa 0,0 l/m 0 min 0 min 0,0 UV-I 69 W/m 17,7 km/h (3 Bft)
22.08.2014 08:18 13,2 C 12,2 C 83 % 1011,9 hPa 0,0 l/m 0 min 0 min 0,0 UV-I 69 W/m 21,3 km/h (4 Bft)
22.08.2014 08:20 13,2 C 12,2 C 83 % 1012,0 hPa 0,0 l/m 0 min 0 min 0,0 UV-I 69 W/m 14,2 km/h (3 Bft)
22.08.2014 08:22 13,2 C 12,2 C 83 % 1011,9 hPa 0,0 l/m 0 min 0 min 0,0 UV-I 71 W/m 3,5 km/h (1 Bft)
22.08.2014 08:24 13,2 C 12,2 C 83 % 1011,9 hPa 0,0 l/m 0 min 0 min 0,0 UV-I 69 W/m 14,2 km/h (3 Bft)
22.08.2014 08:26 13,3 C 12,2 C 83 % 1011,9 hPa 0,0 l/m 0 min 0 min 0,0 UV-I 67 W/m 10,7 km/h (2 Bft)
22.08.2014 08:28 13,3 C 12,2 C 84 % 1012,0 hPa 0,0 l/m 0 min 0 min 0,0 UV-I 68 W/m 0,0 km/h (0 Bft)
22.08.2014 08:30 13,3 C 12,2 C 84 % 1012,0 hPa 0,0 l/m 0 min 0 min 0,0 UV-I 73 W/m 0,0 km/h (0 Bft)
22.08.2014 08:32 13,4 C 12,2 C 84 % 1012,1 hPa 0,0 l/m 0 min 0 min 0,0 UV-I 79 W/m 0,0 km/h (0 Bft)
22.08.2014 08:34 13,4 C 12,2 C 84 % 1012,0 hPa 0,0 l/m 0 min 0 min 0,0 UV-I 83 W/m 0,0 km/h (0 Bft)
22.08.2014 08:36 13,4 C 12,8 C 83 % 1012,1 hPa 0,0 l/m 0 min 0 min 0,0 UV-I 81 W/m 0,0 km/h (0 Bft)
22.08.2014 08:38 13,5 C 12,8 C 83 % 1012,1 hPa 0,0 l/m 0 min 0 min 0,0 UV-I 75 W/m 17,7 km/h (3 Bft)
22.08.2014 08:40 13,6 C 12,8 C 83 % 1012,1 hPa 0,0 l/m 0 min 0 min 0,0 UV-I 64 W/m 24,7 km/h (4 Bft)
22.08.2014 08:42 13,6 C 12,2 C 83 % 1012,1 hPa 0,0 l/m 0 min 0 min 0,0 UV-I 53 W/m 10,7 km/h (2 Bft)
22.08.2014 08:44 13,5 C 12,2 C 83 % 1012,1 hPa 0,0 l/m 0 min 0 min 0,0 UV-I 44 W/m 0,0 km/h (0 Bft)
22.08.2014 08:46 13,5 C 12,2 C 83 % 1012,2 hPa 0,0 l/m 0 min 0 min 0,0 UV-I 38 W/m 0,0 km/h (0 Bft)
22.08.2014 08:48 13,4 C 12,2 C 84 % 1012,2 hPa 0,0 l/m 0 min 0 min 0,0 UV-I 36 W/m 0,0 km/h (0 Bft)
22.08.2014 08:50 13,4 C 12,2 C 84 % 1012,1 hPa 0,0 l/m 0 min 0 min 0,0 UV-I 37 W/m 0,0 km/h (0 Bft)
22.08.2014 08:52 13,3 C 12,2 C 84 % 1012,1 hPa 0,0 l/m 0 min 0 min 0,0 UV-I 43 W/m 7,1 km/h (2 Bft)
22.08.2014 08:54 13,2 C 12,2 C 84 % 1012,1 hPa 0,0 l/m 0 min 0 min 0,0 UV-I 53 W/m 0,0 km/h (0 Bft)
22.08.2014 08:56 13,2 C 12,2 C 84 % 1012,1 hPa 0,0 l/m 0 min 0 min 0,0 UV-I 64 W/m 0,0 km/h (0 Bft)
22.08.2014 08:58 13,3 C 12,2 C 84 % 1012,1 hPa 0,0 l/m 0 min 0 min 0,0 UV-I 70 W/m 0,0 km/h (0 Bft)
22.08.2014 09:00 13,3 C 12,2 C 85 % 1012,1 hPa 0,0 l/m 0 min 0 min 0,0 UV-I 73 W/m 0,0 km/h (0 Bft)
22.08.2014 09:02 13,3 C 12,2 C 85 % 1012,0 hPa 0,0 l/m 0 min 0 min 0,0 UV-I 76 W/m 0,0 km/h (0 Bft)
22.08.2014 09:04 13,3 C 12,2 C 85 % 1012,1 hPa 0,0 l/m 0 min 0 min 0,0 UV-I 76 W/m 0,0 km/h (0 Bft)
22.08.2014 09:06 13,3 C 12,2 C 84 % 1012,1 hPa 0,0 l/m 0 min 0 min 0,0 UV-I 72 W/m 0,0 km/h (0 Bft)
22.08.2014 09:08 13,3 C 12,2 C 84 % 1012,1 hPa 0,0 l/m 0 min 0 min 0,0 UV-I 70 W/m 0,0 km/h (0 Bft)
22.08.2014 09:10 13,3 C 12,8 C 84 % 1012,0 hPa 0,0 l/m 0 min 0 min 0,0 UV-I 77 W/m 0,0 km/h (0 Bft)
22.08.2014 09:12 13,3 C 12,8 C 85 % 1012,0 hPa 0,0 l/m 0 min 0 min 0,0 UV-I 86 W/m 3,5 km/h (1 Bft)
22.08.2014 09:14 13,3 C 12,8 C 84 % 1012,0 hPa 0,0 l/m 0 min 0 min 0,0 UV-I 97 W/m 0,0 km/h (0 Bft)
22.08.2014 09:16 13,4 C 12,8 C 84 % 1012,0 hPa 0,0 l/m 0 min 0 min 0,0 UV-I 108 W/m 3,5 km/h (1 Bft)
22.08.2014 09:18 13,4 C 12,8 C 85 % 1011,9 hPa 0,0 l/m 0 min 0 min 0,0 UV-I 120 W/m 10,7 km/h (2 Bft)
22.08.2014 09:20 13,5 C 12,8 C 85 % 1011,9 hPa 0,0 l/m 0 min 0 min 0,0 UV-I 135 W/m 17,7 km/h (3 Bft)
22.08.2014 09:22 13,6 C 12,8 C 85 % 1011,8 hPa 0,0 l/m 0 min 0 min 0,0 UV-I 143 W/m 17,7 km/h (3 Bft)
22.08.2014 09:24 13,7 C 13,3 C 85 % 1011,8 hPa 0,0 l/m 0 min 0 min 0,0 UV-I 145 W/m 21,3 km/h (4 Bft)
22.08.2014 09:26 13,8 C 13,3 C 85 % 1011,8 hPa 0,0 l/m 0 min 0 min 0,0 UV-I 140 W/m 14,2 km/h (3 Bft)
22.08.2014 09:28 13,8 C 13,3 C 84 % 1011,8 hPa 0,0 l/m 0 min 0 min 0,0 UV-I 134 W/m 0,0 km/h (0 Bft)
22.08.2014 09:30 13,9 C 13,3 C 84 % 1011,8 hPa 0,0 l/m 0 min 0 min 0,0 UV-I 133 W/m 14,2 km/h (3 Bft)
22.08.2014 09:32 14,2 C 13,3 C 84 % 1011,8 hPa 0,0 l/m 0 min 0 min 0,0 UV-I 140 W/m 7,1 km/h (2 Bft)
22.08.2014 09:34 14,2 C 13,3 C 83 % 1011,8 hPa 0,0 l/m 0 min 0 min 0,0 UV-I 153 W/m 14,2 km/h (3 Bft)
22.08.2014 09:36 14,2 C 13,3 C 82 % 1011,8 hPa 0,0 l/m 0 min 0 min 0,0 UV-I 170 W/m 14,2 km/h (3 Bft)
22.08.2014 09:38 14,2 C 13,9 C 82 % 1011,8 hPa 0,0 l/m 0 min 0 min 0,0 UV-I 201 W/m 7,1 km/h (2 Bft)
22.08.2014 09:40 14,4 C 13,9 C 82 % 1011,6 hPa 0,0 l/m 2 min 0 min 0,0 UV-I 244 W/m 14,2 km/h (3 Bft)
22.08.2014 09:42 14,5 C 13,9 C 81 % 1011,7 hPa 0,0 l/m 2 min 0 min 0,0 UV-I 286 W/m 10,7 km/h (2 Bft)
22.08.2014 09:44 14,7 C 14,4 C 82 % 1011,6 hPa 0,0 l/m 2 min 0 min 0,2 UV-I 327 W/m 10,7 km/h (2 Bft)
22.08.2014 09:46 14,8 C 14,4 C 80 % 1011,6 hPa 0,0 l/m 2 min 0 min 0,0 UV-I 284 W/m 14,2 km/h (3 Bft)
22.08.2014 09:48 15,0 C 14,4 C 80 % 1011,6 hPa 0,0 l/m 2 min 0 min 0,0 UV-I 246 W/m 21,3 km/h (4 Bft)
22.08.2014 09:50 15,1 C 14,4 C 79 % 1011,6 hPa 0,0 l/m 0 min 0 min 0,0 UV-I 193 W/m 28,2 km/h (4 Bft)
22.08.2014 09:52 15,1 C 14,4 C 78 % 1011,6 hPa 0,0 l/m 0 min 0 min 0,0 UV-I 147 W/m 24,7 km/h (4 Bft)
22.08.2014 09:54 15,1 C 13,9 C 78 % 1011,7 hPa 0,0 l/m 0 min 0 min 0,0 UV-I 110 W/m 24,7 km/h (4 Bft)
22.08.2014 09:56 15,1 C 13,9 C 78 % 1011,7 hPa 0,0 l/m 0 min 0 min 0,0 UV-I 90 W/m 17,7 km/h (3 Bft)
22.08.2014 09:58 15,1 C 13,9 C 78 % 1011,8 hPa 0,0 l/m 0 min 0 min 0,0 UV-I 81 W/m 28,2 km/h (4 Bft)
22.08.2014 10:00 15,0 C 13,9 C 77 % 1011,7 hPa 0,0 l/m 0 min 0 min 0,0 UV-I 79 W/m 17,7 km/h (3 Bft)
22.08.2014 10:02 15,0 C 13,9 C 77 % 1011,8 hPa 0,0 l/m 0 min 0 min 0,0 UV-I 81 W/m 35,4 km/h (5 Bft)
22.08.2014 10:04 14,9 C 13,9 C 78 % 1011,8 hPa 0,0 l/m 0 min 0 min 0,0 UV-I 85 W/m 24,7 km/h (4 Bft)
22.08.2014 10:06 14,9 C 13,9 C 78 % 1011,7 hPa 0,0 l/m 0 min 0 min 0,0 UV-I 89 W/m 17,7 km/h (3 Bft)
22.08.2014 10:08 14,9 C 13,9 C 78 % 1011,8 hPa 0,0 l/m 0 min 0 min 0,0 UV-I 94 W/m 21,3 km/h (4 Bft)
22.08.2014 10:10 14,9 C 13,9 C 77 % 1011,8 hPa 0,0 l/m 0 min 0 min 0,0 UV-I 100 W/m 17,7 km/h (3 Bft)
22.08.2014 10:12 15,0 C 13,9 C 77 % 1011,8 hPa 0,0 l/m 0 min 0 min 0,0 UV-I 103 W/m 17,7 km/h (3 Bft)
22.08.2014 10:14 15,1 C 13,9 C 78 % 1011,8 hPa 0,0 l/m 0 min 0 min 0,0 UV-I 104 W/m 17,7 km/h (3 Bft)
22.08.2014 10:16 15,1 C 13,9 C 77 % 1011,8 hPa 0,0 l/m 0 min 0 min 0,0 UV-I 106 W/m 21,3 km/h (4 Bft)
22.08.2014 10:18 15,1 C 13,9 C 77 % 1011,8 hPa 0,0 l/m 0 min 0 min 0,0 UV-I 112 W/m 17,7 km/h (3 Bft)
22.08.2014 10:20 15,1 C 13,9 C 77 % 1011,8 hPa 0,0 l/m 0 min 0 min 0,0 UV-I 120 W/m 28,2 km/h (4 Bft)
22.08.2014 10:22 15,1 C 13,9 C 77 % 1011,8 hPa 0,0 l/m 0 min 0 min 0,0 UV-I 132 W/m 31,7 km/h (5 Bft)
22.08.2014 10:24 15,2 C 14,4 C 77 % 1011,7 hPa 0,0 l/m 0 min 0 min 0,0 UV-I 151 W/m 31,7 km/h (5 Bft)
22.08.2014 10:26 15,3 C 14,4 C 77 % 1011,8 hPa 0,0 l/m 0 min 0 min 0,0 UV-I 164 W/m 10,7 km/h (2 Bft)
22.08.2014 10:28 15,4 C 14,4 C 77 % 1011,7 hPa 0,0 l/m 0 min 0 min 0,0 UV-I 167 W/m 21,3 km/h (4 Bft)
22.08.2014 10:30 15,4 C 14,4 C 77 % 1011,7 hPa 0,0 l/m 0 min 0 min 0,0 UV-I 170 W/m 21,3 km/h (4 Bft)
22.08.2014 10:32 15,5 C 14,4 C 76 % 1011,7 hPa 0,0 l/m 0 min 0 min 0,3 UV-I 181 W/m 24,7 km/h (4 Bft)
22.08.2014 10:34 15,6 C 15,0 C 76 % 1011,7 hPa 0,0 l/m 0 min 0 min 0,5 UV-I 193 W/m 38,9 km/h (6 Bft)
22.08.2014 10:36 15,7 C 15,0 C 76 % 1011,7 hPa 0,0 l/m 0 min 0 min 0,6 UV-I 199 W/m 24,7 km/h (4 Bft)
22.08.2014 10:38 15,8 C 15,0 C 76 % 1011,8 hPa 0,0 l/m 0 min 0 min 0,6 UV-I 205 W/m 31,7 km/h (5 Bft)
22.08.2014 10:40 15,8 C 15,0 C 75 % 1011,7 hPa 0,0 l/m 0 min 0 min 0,7 UV-I 217 W/m 24,7 km/h (4 Bft)
22.08.2014 10:42 15,9 C 15,0 C 75 % 1011,8 hPa 0,0 l/m 0 min 0 min 0,8 UV-I 234 W/m 24,7 km/h (4 Bft)
22.08.2014 10:44 15,9 C 15,0 C 75 % 1011,6 hPa 0,0 l/m 0 min 0 min 1,0 UV-I 264 W/m 21,3 km/h (4 Bft)
22.08.2014 10:46 16,0 C 15,0 C 74 % 1011,6 hPa 0,0 l/m 0 min 0 min 1,1 UV-I 295 W/m 31,7 km/h (5 Bft)
22.08.2014 10:48 16,1 C 15,6 C 73 % 1011,6 hPa 0,0 l/m 2 min 0 min 1,3 UV-I 393 W/m 31,7 km/h (5 Bft)
22.08.2014 10:50 16,2 C 15,6 C 72 % 1011,6 hPa 0,0 l/m 2 min 0 min 1,4 UV-I 378 W/m 38,9 km/h (6 Bft)
22.08.2014 10:52 16,3 C 15,6 C 73 % 1011,6 hPa 0,0 l/m 2 min 0 min 1,3 UV-I 356 W/m 38,9 km/h (6 Bft)
22.08.2014 10:54 16,5 C 16,1 C 73 % 1011,6 hPa 0,0 l/m 2 min 0 min 1,5 UV-I 447 W/m 24,7 km/h (4 Bft)
22.08.2014 10:56 16,7 C 16,1 C 74 % 1011,5 hPa 0,0 l/m 2 min 0 min 1,7 UV-I 476 W/m 21,3 km/h (4 Bft)
22.08.2014 10:58 16,9 C 16,1 C 72 % 1011,5 hPa 0,0 l/m 2 min 0 min 1,6 UV-I 444 W/m 31,7 km/h (5 Bft)
22.08.2014 11:00 17,0 C 16,1 C 71 % 1011,6 hPa 0,0 l/m 2 min 0 min 1,5 UV-I 386 W/m 28,2 km/h (4 Bft)
22.08.2014 11:02 17,0 C 16,1 C 70 % 1011,5 hPa 0,0 l/m 2 min 0 min 1,5 UV-I 388 W/m 28,2 km/h (4 Bft)
22.08.2014 11:04 17,0 C 16,1 C 70 % 1011,6 hPa 0,0 l/m 2 min 0 min 1,6 UV-I 449 W/m 24,7 km/h (4 Bft)
22.08.2014 11:06 17,0 C 16,1 C 70 % 1011,5 hPa 0,0 l/m 2 min 0 min 1,6 UV-I 491 W/m 38,9 km/h (6 Bft)
22.08.2014 11:08 17,1 C 16,7 C 72 % 1011,5 hPa 0,0 l/m 2 min 0 min 1,7 UV-I 398 W/m 31,7 km/h (5 Bft)
22.08.2014 11:10 17,1 C 16,1 C 69 % 1011,5 hPa 0,0 l/m 2 min 0 min 1,8 UV-I 359 W/m 53,0 km/h (7 Bft)
22.08.2014 11:12 17,2 C 16,7 C 70 % 1011,5 hPa 0,0 l/m 2 min 0 min 1,7 UV-I 439 W/m 35,4 km/h (5 Bft)
22.08.2014 11:14 17,3 C 16,7 C 70 % 1011,5 hPa 0,0 l/m 2 min 0 min 1,7 UV-I 569 W/m 46,0 km/h (6 Bft)
22.08.2014 11:16 17,4 C 16,7 C 70 % 1011,5 hPa 0,0 l/m 2 min 0 min 1,8 UV-I 578 W/m 46,0 km/h (6 Bft)
22.08.2014 11:18 17,4 C 16,7 C 69 % 1011,6 hPa 0,0 l/m 2 min 0 min 1,5 UV-I 461 W/m 42,4 km/h (6 Bft)
22.08.2014 11:20 17,4 C 16,7 C 70 % 1011,5 hPa 0,0 l/m 2 min 0 min 1,6 UV-I 359 W/m 42,4 km/h (6 Bft)
22.08.2014 11:22 17,4 C 16,7 C 70 % 1011,5 hPa 0,0 l/m 2 min 0 min 1,8 UV-I 386 W/m 49,5 km/h (6 Bft)
22.08.2014 11:24 17,5 C 16,7 C 69 % 1011,6 hPa 0,0 l/m 2 min 0 min 2,0 UV-I 450 W/m 38,9 km/h (6 Bft)
22.08.2014 11:26 17,5 C 16,7 C 69 % 1011,5 hPa 0,0 l/m 2 min 0 min 1,9 UV-I 430 W/m 49,5 km/h (6 Bft)
22.08.2014 11:28 17,6 C 16,7 C 69 % 1011,5 hPa 0,0 l/m 2 min 0 min 2,2 UV-I 505 W/m 53,0 km/h (7 Bft)
22.08.2014 11:30 17,6 C 16,7 C 68 % 1011,5 hPa 0,0 l/m 2 min 0 min 2,1 UV-I 526 W/m 42,4 km/h (6 Bft)
22.08.2014 11:32 17,7 C 16,7 C 68 % 1011,5 hPa 0,0 l/m 2 min 0 min 1,8 UV-I 406 W/m 46,0 km/h (6 Bft)
22.08.2014 11:34 17,6 C 16,7 C 68 % 1011,5 hPa 0,0 l/m 2 min 0 min 1,8 UV-I 374 W/m 53,0 km/h (7 Bft)
22.08.2014 11:36 17,6 C 16,7 C 68 % 1011,5 hPa 0,0 l/m 2 min 0 min 1,9 UV-I 414 W/m 35,4 km/h (5 Bft)
22.08.2014 11:38 17,5 C 16,7 C 68 % 1011,5 hPa 0,0 l/m 2 min 0 min 2,0 UV-I 422 W/m 35,4 km/h (5 Bft)
22.08.2014 11:40 17,6 C 16,7 C 69 % 1011,5 hPa 0,0 l/m 2 min 0 min 2,1 UV-I 437 W/m 38,9 km/h (6 Bft)
22.08.2014 11:42 17,7 C 16,7 C 68 % 1011,5 hPa 0,0 l/m 2 min 0 min 1,8 UV-I 374 W/m 31,7 km/h (5 Bft)
22.08.2014 11:44 17,7 C 17,2 C 68 % 1011,5 hPa 0,0 l/m 2 min 0 min 2,0 UV-I 420 W/m 53,0 km/h (7 Bft)
22.08.2014 11:46 17,8 C 17,2 C 69 % 1011,4 hPa 0,0 l/m 2 min 0 min 2,2 UV-I 569 W/m 31,7 km/h (5 Bft)
22.08.2014 11:48 17,9 C 17,8 C 69 % 1011,5 hPa 0,0 l/m 2 min 0 min 2,3 UV-I 551 W/m 35,4 km/h (5 Bft)
22.08.2014 11:50 18,1 C 17,2 C 67 % 1011,5 hPa 0,0 l/m 2 min 0 min 2,2 UV-I 458 W/m 56,5 km/h (7 Bft)
22.08.2014 11:52 17,9 C 17,2 C 67 % 1011,5 hPa 0,0 l/m 2 min 0 min 2,5 UV-I 401 W/m 56,5 km/h (7 Bft)
22.08.2014 11:54 18,0 C 17,2 C 67 % 1011,4 hPa 0,0 l/m 2 min 0 min 3,0 UV-I 546 W/m 49,5 km/h (6 Bft)
22.08.2014 11:56 18,2 C 17,8 C 67 % 1011,4 hPa 0,0 l/m 2 min 0 min 3,3 UV-I 727 W/m 46,0 km/h (6 Bft)
22.08.2014 11:58 18,3 C 17,8 C 67 % 1011,4 hPa 0,0 l/m 2 min 0 min 3,2 UV-I 770 W/m 49,5 km/h (6 Bft)
22.08.2014 12:00 18,4 C 17,8 C 67 % 1011,4 hPa 0,0 l/m 2 min 0 min 2,6 UV-I 615 W/m 42,4 km/h (6 Bft)
22.08.2014 12:02 18,4 C 17,8 C 66 % 1011,4 hPa 0,0 l/m 2 min 0 min 2,3 UV-I 432 W/m 53,0 km/h (7 Bft)
22.08.2014 12:05 18,5 C 17,8 C 67 % 1011,4 hPa 0,0 l/m 2 min 0 min 2,9 UV-I 549 W/m 46,0 km/h (6 Bft)
22.08.2014 12:06 18,5 C 18,3 C 67 % 1011,4 hPa 0,0 l/m 1 min 0 min 3,0 UV-I 654 W/m 49,5 km/h (6 Bft)
22.08.2014 12:08 18,7 C 18,3 C 66 % 1011,4 hPa 0,0 l/m 2 min 0 min 3,5 UV-I 687 W/m 49,5 km/h (6 Bft)
22.08.2014 12:10 18,8 C 18,3 C 67 % 1011,4 hPa 0,0 l/m 2 min 0 min 3,2 UV-I 697 W/m 49,5 km/h (6 Bft)
22.08.2014 12:12 18,8 C 18,3 C 67 % 1011,3 hPa 0,0 l/m 2 min 0 min 2,6 UV-I 543 W/m 35,4 km/h (5 Bft)
22.08.2014 12:14 18,8 C 18,3 C 66 % 1011,3 hPa 0,0 l/m 2 min 0 min 2,6 UV-I 505 W/m 63,7 km/h (8 Bft)
22.08.2014 12:16 18,6 C 17,8 C 65 % 1011,3 hPa 0,0 l/m 2 min 0 min 2,1 UV-I 361 W/m 56,5 km/h (7 Bft)
22.08.2014 12:18 18,4 C 17,2 C 66 % 1011,3 hPa 0,0 l/m 0 min 0 min 1,9 UV-I 334 W/m 49,5 km/h (6 Bft)
22.08.2014 12:20 18,1 C 17,2 C 66 % 1011,4 hPa 0,0 l/m 0 min 0 min 1,9 UV-I 332 W/m 67,1 km/h (8 Bft)
22.08.2014 12:22 17,9 C 17,2 C 65 % 1011,3 hPa 0,0 l/m 0 min 0 min 2,0 UV-I 346 W/m 53,0 km/h (7 Bft)
22.08.2014 12:24 17,9 C 17,2 C 68 % 1011,4 hPa 0,0 l/m 2 min 0 min 2,1 UV-I 375 W/m 46,0 km/h (6 Bft)
22.08.2014 12:26 17,9 C 17,2 C 66 % 1011,3 hPa 0,0 l/m 2 min 0 min 2,3 UV-I 420 W/m 49,5 km/h (6 Bft)
22.08.2014 12:28 18,0 C 17,2 C 68 % 1011,3 hPa 0,0 l/m 2 min 0 min 2,4 UV-I 455 W/m 31,7 km/h (5 Bft)
22.08.2014 12:30 18,1 C 17,2 C 67 % 1011,4 hPa 0,0 l/m 2 min 0 min 2,6 UV-I 469 W/m 63,7 km/h (8 Bft)
22.08.2014 12:32 18,1 C 17,2 C 66 % 1011,3 hPa 0,0 l/m 2 min 0 min 2,6 UV-I 480 W/m 60,2 km/h (7 Bft)
22.08.2014 12:34 18,2 C 17,8 C 67 % 1011,3 hPa 0,0 l/m 2 min 0 min 2,6 UV-I 572 W/m 46,0 km/h (6 Bft)
22.08.2014 12:36 18,3 C 18,3 C 67 % 1011,3 hPa 0,0 l/m 2 min 0 min 2,7 UV-I 677 W/m 46,0 km/h (6 Bft)
22.08.2014 12:38 18,7 C 18,3 C 68 % 1011,2 hPa 0,0 l/m 2 min 0 min 2,7 UV-I 730 W/m 53,0 km/h (7 Bft)
22.08.2014 12:40 18,8 C 18,3 C 66 % 1011,1 hPa 0,0 l/m 2 min 0 min 2,3 UV-I 537 W/m 42,4 km/h (6 Bft)
22.08.2014 12:42 18,8 C 18,3 C 66 % 1011,1 hPa 0,0 l/m 2 min 0 min 2,2 UV-I 424 W/m 42,4 km/h (6 Bft)
22.08.2014 12:44 18,7 C 18,3 C 66 % 1011,2 hPa 0,0 l/m 2 min 0 min 1,9 UV-I 430 W/m 60,2 km/h (7 Bft)
22.08.2014 12:46 18,7 C 18,3 C 67 % 1011,2 hPa 0,0 l/m 0 min 0 min 2,1 UV-I 362 W/m 49,5 km/h (6 Bft)
22.08.2014 12:48 18,6 C 18,3 C 67 % 1011,3 hPa 0,0 l/m 2 min 0 min 2,3 UV-I 534 W/m 56,5 km/h (7 Bft)
22.08.2014 12:50 18,5 C 17,8 C 65 % 1011,2 hPa 0,0 l/m 0 min 0 min 1,6 UV-I 327 W/m 60,2 km/h (7 Bft)
22.08.2014 12:52 18,4 C 17,8 C 65 % 1011,2 hPa 0,0 l/m 0 min 0 min 1,4 UV-I 277 W/m 56,5 km/h (7 Bft)
22.08.2014 12:54 18,3 C 17,2 C 67 % 1011,3 hPa 0,0 l/m 0 min 0 min 1,9 UV-I 315 W/m 53,0 km/h (7 Bft)
22.08.2014 12:56 18,3 C 17,8 C 67 % 1011,3 hPa 0,0 l/m 0 min 0 min 2,6 UV-I 323 W/m 60,2 km/h (7 Bft)
22.08.2014 12:58 18,3 C 17,8 C 67 % 1011,3 hPa 0,0 l/m 2 min 0 min 2,2 UV-I 387 W/m 46,0 km/h (6 Bft)
22.08.2014 13:00 18,4 C 17,8 C 67 % 1011,3 hPa 0,0 l/m 2 min 0 min 2,3 UV-I 389 W/m 46,0 km/h (6 Bft)
22.08.2014 13:02 18,4 C 17,8 C 66 % 1011,3 hPa 0,0 l/m 0 min 0 min 2,2 UV-I 367 W/m 53,0 km/h (7 Bft)
22.08.2014 13:04 18,4 C 17,8 C 66 % 1011,3 hPa 0,0 l/m 2 min 0 min 2,2 UV-I 395 W/m 60,2 km/h (7 Bft)
22.08.2014 13:06 18,6 C 18,3 C 67 % 1011,3 hPa 0,0 l/m 2 min 0 min 2,2 UV-I 376 W/m 53,0 km/h (7 Bft)
22.08.2014 13:08 18,6 C 18,3 C 66 % 1011,2 hPa 0,0 l/m 0 min 0 min 2,1 UV-I 366 W/m 56,5 km/h (7 Bft)
22.08.2014 13:10 18,5 C 17,8 C 65 % 1011,2 hPa 0,0 l/m 0 min 0 min 2,0 UV-I 359 W/m 56,5 km/h (7 Bft)
22.08.2014 13:12 18,4 C 17,8 C 65 % 1011,3 hPa 0,0 l/m 0 min 0 min 1,9 UV-I 356 W/m 46,0 km/h (6 Bft)
22.08.2014 13:14 18,4 C 17,8 C 65 % 1011,3 hPa 0,0 l/m 2 min 0 min 2,0 UV-I 381 W/m 67,1 km/h (8 Bft)
22.08.2014 13:16 18,5 C 18,3 C 65 % 1011,3 hPa 0,0 l/m 2 min 0 min 2,9 UV-I 461 W/m 49,5 km/h (6 Bft)
22.08.2014 13:18 18,6 C 18,3 C 65 % 1011,2 hPa 0,0 l/m 2 min 0 min 2,4 UV-I 421 W/m 70,6 km/h (8 Bft)
22.08.2014 13:20 18,6 C 17,8 C 64 % 1011,2 hPa 0,0 l/m 0 min 0 min 2,1 UV-I 365 W/m 56,5 km/h (7 Bft)
22.08.2014 13:22 18,6 C 17,8 C 65 % 1011,2 hPa 0,0 l/m 0 min 0 min 2,0 UV-I 357 W/m 63,7 km/h (8 Bft)
22.08.2014 13:24 18,5 C 17,8 C 63 % 1011,2 hPa 0,0 l/m 0 min 0 min 1,9 UV-I 362 W/m 63,7 km/h (8 Bft)
22.08.2014 13:26 18,4 C 17,8 C 65 % 1011,2 hPa 0,0 l/m 2 min 0 min 2,1 UV-I 410 W/m 53,0 km/h (7 Bft)
22.08.2014 13:28 18,4 C 17,8 C 64 % 1011,2 hPa 0,0 l/m 2 min 0 min 2,2 UV-I 420 W/m 60,2 km/h (7 Bft)
22.08.2014 13:30 18,5 C 17,8 C 63 % 1011,3 hPa 0,0 l/m 2 min 0 min 2,2 UV-I 401 W/m 60,2 km/h (7 Bft)
22.08.2014 13:32 18,4 C 17,8 C 63 % 1011,2 hPa 0,0 l/m 0 min 0 min 2,0 UV-I 354 W/m 67,1 km/h (8 Bft)
22.08.2014 13:34 18,4 C 17,8 C 65 % 1011,2 hPa 0,0 l/m 0 min 0 min 1,8 UV-I 334 W/m 60,2 km/h (7 Bft)
22.08.2014 13:36 18,4 C 17,8 C 64 % 1011,2 hPa 0,0 l/m 0 min 0 min 1,8 UV-I 336 W/m 46,0 km/h (6 Bft)
22.08.2014 13:38 18,3 C 17,8 C 65 % 1011,2 hPa 0,0 l/m 2 min 0 min 2,0 UV-I 384 W/m 53,0 km/h (7 Bft)
22.08.2014 13:40 18,5 C 18,3 C 66 % 1011,2 hPa 0,0 l/m 2 min 0 min 2,9 UV-I 538 W/m 49,5 km/h (6 Bft)
22.08.2014 13:42 18,9 C 18,9 C 65 % 1011,1 hPa 0,0 l/m 2 min 0 min 3,0 UV-I 577 W/m 63,7 km/h (8 Bft)
22.08.2014 13:44 19,1 C 18,9 C 64 % 1011,2 hPa 0,0 l/m 2 min 0 min 2,6 UV-I 533 W/m 67,1 km/h (8 Bft)
22.08.2014 13:46 19,1 C 18,3 C 63 % 1011,2 hPa 0,0 l/m 2 min 0 min 2,0 UV-I 529 W/m 56,5 km/h (7 Bft)
22.08.2014 13:48 18,9 C 18,3 C 64 % 1011,2 hPa 0,0 l/m 0 min 0 min 1,7 UV-I 333 W/m 63,7 km/h (8 Bft)
22.08.2014 13:50 18,7 C 17,8 C 63 % 1011,1 hPa 0,0 l/m 0 min 0 min 1,6 UV-I 279 W/m 53,0 km/h (7 Bft)
22.08.2014 13:52 18,5 C 17,8 C 64 % 1011,2 hPa 0,0 l/m 0 min 0 min 1,4 UV-I 271 W/m 56,5 km/h (7 Bft)
22.08.2014 13:54 18,4 C 17,8 C 63 % 1011,2 hPa 0,0 l/m 0 min 0 min 1,3 UV-I 266 W/m 56,5 km/h (7 Bft)
22.08.2014 13:56 18,3 C 17,2 C 65 % 1011,1 hPa 0,0 l/m 0 min 0 min 1,3 UV-I 265 W/m 49,5 km/h (6 Bft)
22.08.2014 13:57 18,2 C 17,2 C 65 % 1011,2 hPa 0,0 l/m 0 min 0 min 1,4 UV-I 281 W/m 49,5 km/h (6 Bft)
22.08.2014 13:58 18,2 C 17,2 C 65 % 1011,2 hPa 0,0 l/m 0 min 0 min 1,5 UV-I 294 W/m 49,5 km/h (6 Bft)
22.08.2014 14:00 18,1 C 17,2 C 65 % 1011,2 hPa 0,0 l/m 0 min 0 min 1,5 UV-I 290 W/m 35,4 km/h (5 Bft)
22.08.2014 14:02 18,2 C 17,8 C 66 % 1011,2 hPa 0,0 l/m 0 min 0 min 1,7 UV-I 319 W/m 53,0 km/h (7 Bft)
22.08.2014 14:04 18,2 C 17,8 C 66 % 1011,2 hPa 0,0 l/m 0 min 0 min 1,6 UV-I 298 W/m 42,4 km/h (6 Bft)
22.08.2014 14:06 18,3 C 17,8 C 67 % 1011,2 hPa 0,0 l/m 0 min 0 min 1,4 UV-I 276 W/m 46,0 km/h (6 Bft)
22.08.2014 14:08 18,2 C 17,2 C 66 % 1011,1 hPa 0,0 l/m 0 min 0 min 1,3 UV-I 265 W/m 56,5 km/h (7 Bft)
22.08.2014 14:10 18,2 C 17,2 C 66 % 1011,1 hPa 0,0 l/m 0 min 0 min 1,1 UV-I 248 W/m 46,0 km/h (6 Bft)
22.08.2014 14:12 18,2 C 17,2 C 67 % 1011,1 hPa 0,0 l/m 0 min 0 min 1,1 UV-I 239 W/m 38,9 km/h (6 Bft)
22.08.2014 14:14 18,1 C 17,2 C 67 % 1011,1 hPa 0,0 l/m 0 min 0 min 1,1 UV-I 237 W/m 21,3 km/h (4 Bft)
22.08.2014 14:16 18,1 C 17,2 C 67 % 1011,1 hPa 0,0 l/m 0 min 0 min 1,1 UV-I 251 W/m 42,4 km/h (6 Bft)
22.08.2014 14:17 18,1 C 17,2 C 67 % 1011,1 hPa 0,0 l/m 0 min 0 min 1,3 UV-I 272 W/m 28,2 km/h (4 Bft)
22.08.2014 14:20 18,2 C 17,2 C 67 % 1011,0 hPa 0,0 l/m 0 min 0 min 1,3 UV-I 278 W/m 42,4 km/h (6 Bft)
22.08.2014 14:22 18,2 C 17,8 C 67 % 1011,0 hPa 0,0 l/m 0 min 0 min 1,3 UV-I 279 W/m 42,4 km/h (6 Bft)
22.08.2014 14:24 18,3 C 17,8 C 68 % 1011,0 hPa 0,0 l/m 0 min 0 min 1,7 UV-I 343 W/m 35,4 km/h (5 Bft)
22.08.2014 14:26 18,4 C 17,8 C 67 % 1010,9 hPa 0,0 l/m 0 min 0 min 1,9 UV-I 368 W/m 21,3 km/h (4 Bft)
22.08.2014 14:28 18,5 C 18,3 C 67 % 1011,0 hPa 0,0 l/m 0 min 0 min 1,7 UV-I 347 W/m 35,4 km/h (5 Bft)
22.08.2014 14:30 18,6 C 18,3 C 67 % 1010,9 hPa 0,0 l/m 0 min 0 min 1,7 UV-I 338 W/m 42,4 km/h (6 Bft)
22.08.2014 14:32 18,6 C 18,3 C 66 % 1010,9 hPa 0,0 l/m 0 min 0 min 1,6 UV-I 317 W/m 49,5 km/h (6 Bft)
22.08.2014 14:34 18,5 C 17,8 C 66 % 1010,9 hPa 0,0 l/m 0 min 0 min 1,4 UV-I 284 W/m 42,4 km/h (6 Bft)
22.08.2014 14:36 18,4 C 17,8 C 67 % 1010,9 hPa 0,0 l/m 0 min 0 min 1,2 UV-I 270 W/m 31,7 km/h (5 Bft)
22.08.2014 14:38 18,4 C 17,8 C 66 % 1010,9 hPa 0,0 l/m 0 min 0 min 1,4 UV-I 313 W/m 53,0 km/h (7 Bft)
22.08.2014 14:40 18,4 C 17,8 C 67 % 1010,9 hPa 0,0 l/m 2 min 0 min 1,8 UV-I 381 W/m 56,5 km/h (7 Bft)
22.08.2014 14:42 18,5 C 18,3 C 68 % 1010,9 hPa 0,0 l/m 2 min 0 min 2,0 UV-I 426 W/m 49,5 km/h (6 Bft)
22.08.2014 14:43 18,6 C 18,3 C 67 % 1010,9 hPa 0,0 l/m 1 min 0 min 1,8 UV-I 369 W/m 38,9 km/h (6 Bft)
22.08.2014 14:44 18,7 C 18,3 C 67 % 1010,9 hPa 0,0 l/m 1 min 0 min 1,8 UV-I 364 W/m 24,7 km/h (4 Bft)
22.08.2014 14:46 18,7 C 18,3 C 66 % 1010,9 hPa 0,0 l/m 2 min 0 min 1,8 UV-I 371 W/m 14,2 km/h (3 Bft)
22.08.2014 14:48 18,8 C 18,3 C 67 % 1010,9 hPa 0,0 l/m 0 min 0 min 1,6 UV-I 321 W/m 42,4 km/h (6 Bft)
22.08.2014 14:50 18,8 C 18,3 C 67 % 1010,9 hPa 0,0 l/m 0 min 0 min 1,4 UV-I 296 W/m 28,2 km/h (4 Bft)
22.08.2014 14:52 18,8 C 18,3 C 68 % 1010,9 hPa 0,0 l/m 0 min 0 min 1,3 UV-I 277 W/m 31,7 km/h (5 Bft)
22.08.2014 14:54 18,8 C 18,3 C 66 % 1010,9 hPa 0,0 l/m 0 min 0 min 1,1 UV-I 250 W/m 31,7 km/h (5 Bft)
22.08.2014 14:56 18,7 C 17,8 C 66 % 1010,9 hPa 0,0 l/m 0 min 0 min 1,0 UV-I 244 W/m 53,0 km/h (7 Bft)
22.08.2014 14:58 18,7 C 17,8 C 66 % 1010,8 hPa 0,0 l/m 0 min 0 min 1,1 UV-I 259 W/m 42,4 km/h (6 Bft)
22.08.2014 15:00 18,6 C 17,8 C 66 % 1010,9 hPa 0,0 l/m 0 min 0 min 1,1 UV-I 265 W/m 35,4 km/h (5 Bft)
22.08.2014 15:02 18,7 C 17,8 C 66 % 1010,9 hPa 0,0 l/m 0 min 0 min 1,1 UV-I 264 W/m 42,4 km/h (6 Bft)
22.08.2014 15:04 18,6 C 17,8 C 67 % 1010,8 hPa 0,0 l/m 0 min 0 min 1,1 UV-I 261 W/m 53,0 km/h (7 Bft)
22.08.2014 15:06 18,6 C 17,8 C 65 % 1010,8 hPa 0,0 l/m 0 min 0 min 1,1 UV-I 271 W/m 56,5 km/h (7 Bft)
22.08.2014 15:08 18,7 C 17,8 C 67 % 1010,9 hPa 0,0 l/m 0 min 0 min 1,3 UV-I 287 W/m 60,2 km/h (7 Bft)
22.08.2014 15:10 18,7 C 17,8 C 65 % 1010,8 hPa 0,0 l/m 0 min 0 min 1,3 UV-I 286 W/m 56,5 km/h (7 Bft)
22.08.2014 15:12 18,6 C 17,8 C 64 % 1010,8 hPa 0,0 l/m 0 min 0 min 1,3 UV-I 302 W/m 49,5 km/h (6 Bft)
22.08.2014 15:14 18,6 C 17,8 C 65 % 1010,8 hPa 0,0 l/m 0 min 0 min 1,4 UV-I 322 W/m 56,5 km/h (7 Bft)
22.08.2014 15:16 18,6 C 17,8 C 64 % 1010,7 hPa 0,0 l/m 2 min 0 min 1,6 UV-I 352 W/m 46,0 km/h (6 Bft)
22.08.2014 15:18 18,7 C 17,8 C 65 % 1010,7 hPa 0,0 l/m 2 min 0 min 1,6 UV-I 354 W/m 35,4 km/h (5 Bft)
22.08.2014 15:20 18,8 C 18,3 C 65 % 1010,7 hPa 0,0 l/m 2 min 0 min 1,7 UV-I 398 W/m 31,7 km/h (5 Bft)
22.08.2014 15:22 18,9 C 18,3 C 66 % 1010,6 hPa 0,0 l/m 2 min 0 min 1,7 UV-I 394 W/m 35,4 km/h (5 Bft)
22.08.2014 15:24 18,9 C 18,3 C 66 % 1010,6 hPa 0,0 l/m 2 min 0 min 1,8 UV-I 409 W/m 38,9 km/h (6 Bft)
22.08.2014 15:26 19,0 C 18,3 C 63 % 1010,6 hPa 0,0 l/m 2 min 0 min 1,9 UV-I 424 W/m 60,2 km/h (7 Bft)
22.08.2014 15:28 19,1 C 18,3 C 63 % 1010,6 hPa 0,0 l/m 2 min 0 min 1,7 UV-I 373 W/m 35,4 km/h (5 Bft)
22.08.2014 15:30 19,1 C 18,3 C 63 % 1010,6 hPa 0,0 l/m 0 min 0 min 1,5 UV-I 333 W/m 46,0 km/h (6 Bft)
22.08.2014 15:32 19,2 C 18,3 C 64 % 1010,6 hPa 0,0 l/m 0 min 0 min 1,5 UV-I 338 W/m 46,0 km/h (6 Bft)
22.08.2014 15:34 19,2 C 18,3 C 64 % 1010,6 hPa 0,0 l/m 0 min 0 min 1,4 UV-I 336 W/m 31,7 km/h (5 Bft)
22.08.2014 15:36 19,2 C 18,3 C 61 % 1010,5 hPa 0,0 l/m 0 min 0 min 1,4 UV-I 335 W/m 60,2 km/h (7 Bft)
22.08.2014 15:38 19,1 C 18,3 C 61 % 1010,5 hPa 0,0 l/m 0 min 0 min 1,3 UV-I 322 W/m 67,1 km/h (8 Bft)
22.08.2014 15:40 19,1 C 17,8 C 61 % 1010,5 hPa 0,0 l/m 0 min 0 min 1,3 UV-I 308 W/m 63,7 km/h (8 Bft)
22.08.2014 15:42 19,0 C 18,3 C 61 % 1010,5 hPa 0,0 l/m 0 min 0 min 1,3 UV-I 331 W/m 53,0 km/h (7 Bft)
22.08.2014 15:44 19,0 C 17,8 C 61 % 1010,6 hPa 0,0 l/m 0 min 0 min 1,2 UV-I 296 W/m 60,2 km/h (7 Bft)
22.08.2014 15:46 18,9 C 17,8 C 62 % 1010,5 hPa 0,0 l/m 0 min 0 min 1,1 UV-I 278 W/m 49,5 km/h (6 Bft)
22.08.2014 15:48 18,9 C 17,8 C 61 % 1010,5 hPa 0,0 l/m 0 min 0 min 1,1 UV-I 293 W/m 53,0 km/h (7 Bft)
22.08.2014 15:50 18,9 C 17,8 C 62 % 1010,6 hPa 0,0 l/m 0 min 0 min 1,1 UV-I 311 W/m 63,7 km/h (8 Bft)
22.08.2014 15:52 18,9 C 17,8 C 60 % 1010,5 hPa 0,0 l/m 2 min 0 min 1,2 UV-I 335 W/m 63,7 km/h (8 Bft)
22.08.2014 15:54 19,0 C 17,8 C 61 % 1010,6 hPa 0,0 l/m 0 min 0 min 1,2 UV-I 310 W/m 56,5 km/h (7 Bft)
22.08.2014 15:56 19,0 C 17,8 C 61 % 1010,5 hPa 0,0 l/m 0 min 0 min 1,1 UV-I 292 W/m 46,0 km/h (6 Bft)
22.08.2014 15:58 19,0 C 17,8 C 61 % 1010,4 hPa 0,0 l/m 0 min 0 min 1,0 UV-I 276 W/m 46,0 km/h (6 Bft)
22.08.2014 16:00 19,0 C 17,8 C 62 % 1010,5 hPa 0,0 l/m 0 min 0 min 0,9 UV-I 270 W/m 35,4 km/h (5 Bft)
22.08.2014 16:02 19,1 C 18,3 C 63 % 1010,5 hPa 0,0 l/m 0 min 0 min 0,9 UV-I 275 W/m 38,9 km/h (6 Bft)
22.08.2014 16:04 19,1 C 18,3 C 62 % 1010,5 hPa 0,0 l/m 0 min 2 min 0,9 UV-I 267 W/m 56,5 km/h (7 Bft)
22.08.2014 16:06 19,1 C 18,3 C 62 % 1010,4 hPa 0,0 l/m 0 min 0 min 0,8 UV-I 249 W/m 35,4 km/h (5 Bft)
22.08.2014 16:08 19,0 C 17,8 C 62 % 1010,4 hPa 0,0 l/m 0 min 0 min 0,8 UV-I 245 W/m 42,4 km/h (6 Bft)
22.08.2014 16:10 19,0 C 17,8 C 63 % 1010,5 hPa 0,0 l/m 0 min 0 min 0,7 UV-I 227 W/m 53,0 km/h (7 Bft)
22.08.2014 16:12 18,9 C 17,8 C 62 % 1010,6 hPa 0,0 l/m 0 min 0 min 0,6 UV-I 193 W/m 60,2 km/h (7 Bft)
22.08.2014 16:14 18,8 C 17,8 C 62 % 1010,6 hPa 0,0 l/m 0 min 0 min 0,1 UV-I 161 W/m 42,4 km/h (6 Bft)
22.08.2014 16:16 18,7 C 17,2 C 63 % 1010,6 hPa 0,0 l/m 0 min 0 min 0,0 UV-I 137 W/m 46,0 km/h (6 Bft)
22.08.2014 16:18 18,6 C 17,2 C 64 % 1010,6 hPa 0,0 l/m 0 min 0 min 0,0 UV-I 138 W/m 42,4 km/h (6 Bft)
22.08.2014 16:20 18,6 C 17,2 C 64 % 1010,6 hPa 0,0 l/m 0 min 0 min 0,0 UV-I 150 W/m 42,4 km/h (6 Bft)
22.08.2014 16:22 18,5 C 17,2 C 63 % 1010,6 hPa 0,0 l/m 0 min 2 min 0,0 UV-I 170 W/m 42,4 km/h (6 Bft)
22.08.2014 16:24 18,5 C 17,2 C 64 % 1010,7 hPa 0,0 l/m 0 min 2 min 0,1 UV-I 193 W/m 21,3 km/h (4 Bft)
22.08.2014 16:26 18,6 C 17,2 C 65 % 1010,6 hPa 0,0 l/m 0 min 0 min 0,5 UV-I 200 W/m 56,5 km/h (7 Bft)
22.08.2014 16:28 18,5 C 17,2 C 64 % 1010,7 hPa 0,0 l/m 0 min 0 min 0,3 UV-I 190 W/m 42,4 km/h (6 Bft)
22.08.2014 16:30 18,5 C 17,2 C 65 % 1010,6 hPa 0,0 l/m 0 min 2 min 0,0 UV-I 166 W/m 31,7 km/h (5 Bft)
22.08.2014 16:32 18,5 C 17,2 C 65 % 1010,6 hPa 0,0 l/m 0 min 2 min 0,0 UV-I 166 W/m 53,0 km/h (7 Bft)
22.08.2014 16:34 18,4 C 16,7 C 65 % 1010,6 hPa 0,0 l/m 0 min 2 min 0,0 UV-I 187 W/m 46,0 km/h (6 Bft)
22.08.2014 16:36 18,4 C 16,7 C 66 % 1010,6 hPa 0,0 l/m 0 min 2 min 0,2 UV-I 167 W/m 49,5 km/h (6 Bft)
22.08.2014 16:38 18,3 C 16,7 C 65 % 1010,6 hPa 0,0 l/m 0 min 2 min 0,0 UV-I 118 W/m 46,0 km/h (6 Bft)
22.08.2014 16:40 18,2 C 16,7 C 65 % 1010,7 hPa 0,0 l/m 0 min 0 min 0,0 UV-I 91 W/m 42,4 km/h (6 Bft)
22.08.2014 16:42 18,1 C 16,1 C 66 % 1010,6 hPa 0,0 l/m 0 min 2 min 0,0 UV-I 100 W/m 49,5 km/h (6 Bft)
22.08.2014 16:44 18,0 C 16,1 C 67 % 1010,6 hPa 0,0 l/m 0 min 0 min 0,0 UV-I 126 W/m 24,7 km/h (4 Bft)
22.08.2014 16:46 17,9 C 16,1 C 67 % 1010,5 hPa 0,0 l/m 0 min 0 min 0,0 UV-I 149 W/m 46,0 km/h (6 Bft)
22.08.2014 16:48 17,9 C 16,7 C 66 % 1010,6 hPa 0,0 l/m 0 min 0 min 0,0 UV-I 145 W/m 46,0 km/h (6 Bft)
22.08.2014 16:50 17,9 C 16,1 C 67 % 1010,5 hPa 0,0 l/m 0 min 2 min 0,0 UV-I 135 W/m 42,4 km/h (6 Bft)
22.08.2014 16:52 17,9 C 16,1 C 67 % 1010,5 hPa 0,0 l/m 0 min 2 min 0,0 UV-I 136 W/m 38,9 km/h (6 Bft)
22.08.2014 16:54 17,9 C 16,1 C 68 % 1010,6 hPa 0,0 l/m 0 min 2 min 0,0 UV-I 154 W/m 31,7 km/h (5 Bft)
22.08.2014 16:56 17,9 C 16,1 C 69 % 1010,6 hPa 0,0 l/m 0 min 2 min 0,0 UV-I 175 W/m 35,4 km/h (5 Bft)
22.08.2014 16:58 17,8 C 15,6 C 69 % 1010,6 hPa 0,0 l/m 0 min 2 min 0,0 UV-I 164 W/m 31,7 km/h (5 Bft)
22.08.2014 17:00 17,8 C 15,6 C 73 % 1010,6 hPa 0,0 l/m 0 min 2 min 0,0 UV-I 145 W/m 24,7 km/h (4 Bft)
22.08.2014 17:02 17,7 C 15,6 C 72 % 1010,6 hPa 0,0 l/m 0 min 2 min 0,0 UV-I 123 W/m 24,7 km/h (4 Bft)
22.08.2014 17:04 17,5 C 15,6 C 72 % 1010,6 hPa 0,0 l/m 0 min 0 min 0,0 UV-I 99 W/m 31,7 km/h (5 Bft)
22.08.2014 17:06 17,4 C 15,6 C 73 % 1010,6 hPa 0,0 l/m 0 min 0 min 0,0 UV-I 85 W/m 21,3 km/h (4 Bft)
22.08.2014 17:08 17,3 C 15,6 C 73 % 1010,7 hPa 0,0 l/m 0 min 0 min 0,0 UV-I 77 W/m 14,2 km/h (3 Bft)
22.08.2014 17:10 17,2 C 15,6 C 74 % 1010,6 hPa 0,0 l/m 0 min 0 min 0,0 UV-I 76 W/m 24,7 km/h (4 Bft)
22.08.2014 17:12 17,1 C 15,6 C 74 % 1010,6 hPa 0,0 l/m 0 min 0 min 0,0 UV-I 70 W/m 21,3 km/h (4 Bft)
22.08.2014 17:14 17,1 C 15,6 C 74 % 1010,7 hPa 0,0 l/m 0 min 2 min 0,0 UV-I 69 W/m 14,2 km/h (3 Bft)
22.08.2014 17:16 17,0 C 15,6 C 75 % 1010,7 hPa 0,0 l/m 0 min 2 min 0,0 UV-I 72 W/m 14,2 km/h (3 Bft)
22.08.2014 17:18 16,9 C 15,0 C 76 % 1010,6 hPa 0,0 l/m 0 min 2 min 0,0 UV-I 66 W/m 14,2 km/h (3 Bft)
22.08.2014 17:20 16,8 C 14,4 C 77 % 1010,6 hPa 0,0 l/m 0 min 2 min 0,0 UV-I 57 W/m 17,7 km/h (3 Bft)
22.08.2014 17:22 16,7 C 13,9 C 77 % 1010,6 hPa 0,0 l/m 0 min 2 min 0,0 UV-I 51 W/m 14,2 km/h (3 Bft)
22.08.2014 17:24 16,6 C 13,9 C 80 % 1010,6 hPa 0,0 l/m 0 min 0 min 0,0 UV-I 47 W/m 14,2 km/h (3 Bft)
22.08.2014 17:26 16,5 C 13,9 C 80 % 1010,6 hPa 0,0 l/m 0 min 0 min 0,0 UV-I 47 W/m 17,7 km/h (3 Bft)
22.08.2014 17:28 16,4 C 13,9 C 80 % 1010,7 hPa 0,0 l/m 0 min 0 min 0,0 UV-I 43 W/m 21,3 km/h (4 Bft)
22.08.2014 17:30 16,3 C 13,9 C 80 % 1010,8 hPa 0,0 l/m 0 min 0 min 0,0 UV-I 35 W/m 28,2 km/h (4 Bft)
22.08.2014 17:32 16,2 C 13,9 C 80 % 1010,7 hPa 0,0 l/m 0 min 0 min 0,0 UV-I 30 W/m 28,2 km/h (4 Bft)
22.08.2014 17:34 16,1 C 13,9 C 80 % 1010,9 hPa 0,0 l/m 0 min 0 min 0,0 UV-I 34 W/m 24,7 km/h (4 Bft)
22.08.2014 17:36 16,1 C 13,9 C 80 % 1010,9 hPa 0,0 l/m 0 min 0 min 0,0 UV-I 39 W/m 28,2 km/h (4 Bft)
22.08.2014 17:38 15,9 C 13,9 C 80 % 1011,0 hPa 0,0 l/m 0 min 0 min 0,0 UV-I 42 W/m 38,9 km/h (6 Bft)
22.08.2014 17:40 15,8 C 13,9 C 80 % 1011,0 hPa 0,0 l/m 0 min 0 min 0,0 UV-I 38 W/m 38,9 km/h (6 Bft)
22.08.2014 17:42 15,8 C 13,9 C 80 % 1011,2 hPa 0,0 l/m 0 min 2 min 0,0 UV-I 26 W/m 49,5 km/h (6 Bft)
22.08.2014 17:44 15,7 C 13,9 C 81 % 1011,1 hPa 0,0 l/m 0 min 2 min 0,0 UV-I 20 W/m 31,7 km/h (5 Bft)
22.08.2014 17:46 15,6 C 13,9 C 81 % 1011,2 hPa 0,0 l/m 0 min 2 min 0,0 UV-I 18 W/m 35,4 km/h (5 Bft)
22.08.2014 17:48 15,5 C 13,3 C 83 % 1011,1 hPa 0,0 l/m 0 min 2 min 0,0 UV-I 20 W/m 35,4 km/h (5 Bft)
22.08.2014 17:50 15,4 C 13,3 C 83 % 1011,1 hPa 0,0 l/m 0 min 2 min 0,0 UV-I 24 W/m 35,4 km/h (5 Bft)
22.08.2014 17:52 15,2 C 12,8 C 84 % 1011,2 hPa 0,0 l/m 0 min 2 min 0,0 UV-I 29 W/m 46,0 km/h (6 Bft)
22.08.2014 17:54 15,1 C 12,8 C 85 % 1011,1 hPa 0,0 l/m 0 min 2 min 0,0 UV-I 38 W/m 31,7 km/h (5 Bft)
22.08.2014 17:56 14,9 C 12,8 C 86 % 1011,1 hPa 0,0 l/m 0 min 2 min 0,0 UV-I 54 W/m 38,9 km/h (6 Bft)
22.08.2014 17:58 14,8 C 12,8 C 86 % 1011,1 hPa 0,0 l/m 0 min 2 min 0,0 UV-I 62 W/m 38,9 km/h (6 Bft)
22.08.2014 18:00 14,7 C 12,8 C 87 % 1011,1 hPa 0,0 l/m 0 min 0 min 0,0 UV-I 75 W/m 21,3 km/h (4 Bft)
22.08.2014 18:02 14,7 C 12,8 C 88 % 1011,1 hPa 0,0 l/m 0 min 0 min 0,0 UV-I 84 W/m 17,7 km/h (3 Bft)
22.08.2014 18:05 14,7 C 13,3 C 89 % 1011,1 hPa 0,0 l/m 0 min 2 min 0,0 UV-I 67 W/m 24,7 km/h (4 Bft)
22.08.2014 18:06 14,7 C 13,3 C 89 % 1011,1 hPa 0,0 l/m 0 min 1 min 0,0 UV-I 46 W/m 3,5 km/h (1 Bft)
22.08.2014 18:08 14,7 C 12,8 C 89 % 1011,1 hPa 0,0 l/m 0 min 2 min 0,0 UV-I 43 W/m 17,7 km/h (3 Bft)
22.08.2014 18:10 14,7 C 12,8 C 89 % 1011,1 hPa 0,0 l/m 0 min 2 min 0,0 UV-I 37 W/m 21,3 km/h (4 Bft)
22.08.2014 18:12 14,6 C 12,8 C 89 % 1011,2 hPa 0,0 l/m 0 min 2 min 0,0 UV-I 29 W/m 28,2 km/h (4 Bft)
22.08.2014 18:14 14,6 C 12,8 C 90 % 1011,2 hPa 0,0 l/m 0 min 2 min 0,0 UV-I 22 W/m 21,3 km/h (4 Bft)
22.08.2014 18:16 14,5 C 12,8 C 90 % 1011,2 hPa 0,0 l/m 0 min 2 min 0,0 UV-I 24 W/m 21,3 km/h (4 Bft)
22.08.2014 18:18 14,5 C 12,8 C 90 % 1011,2 hPa 0,0 l/m 0 min 2 min 0,0 UV-I 25 W/m 21,3 km/h (4 Bft)
22.08.2014 18:20 14,4 C 12,8 C 90 % 1011,2 hPa 0,0 l/m 0 min 2 min 0,0 UV-I 27 W/m 10,7 km/h (2 Bft)
22.08.2014 18:22 14,4 C 12,8 C 91 % 1011,2 hPa 0,2 l/m 0 min 0 min 0,0 UV-I 33 W/m 28,2 km/h (4 Bft)
22.08.2014 18:24 14,4 C 12,8 C 91 % 1011,2 hPa 0,0 l/m 0 min 2 min 0,0 UV-I 31 W/m 24,7 km/h (4 Bft)
22.08.2014 18:26 14,3 C 12,8 C 91 % 1011,2 hPa 0,0 l/m 0 min 2 min 0,0 UV-I 27 W/m 31,7 km/h (5 Bft)
22.08.2014 18:28 14,3 C 12,8 C 91 % 1011,3 hPa 0,0 l/m 0 min 2 min 0,0 UV-I 24 W/m 31,7 km/h (5 Bft)
22.08.2014 18:30 14,3 C 12,2 C 91 % 1011,3 hPa 0,0 l/m 0 min 2 min 0,0 UV-I 23 W/m 28,2 km/h (4 Bft)
22.08.2014 18:32 14,3 C 12,2 C 91 % 1011,3 hPa 0,0 l/m 0 min 2 min 0,0 UV-I 25 W/m 35,4 km/h (5 Bft)
22.08.2014 18:34 14,2 C 12,2 C 90 % 1011,3 hPa 0,0 l/m 0 min 2 min 0,0 UV-I 25 W/m 21,3 km/h (4 Bft)
22.08.2014 18:36 14,2 C 12,2 C 90 % 1011,3 hPa 0,0 l/m 0 min 2 min 0,0 UV-I 24 W/m 35,4 km/h (5 Bft)
22.08.2014 18:38 14,2 C 12,2 C 90 % 1011,3 hPa 0,2 l/m 0 min 2 min 0,0 UV-I 23 W/m 31,7 km/h (5 Bft)
22.08.2014 18:40 14,2 C 12,2 C 90 % 1011,3 hPa 0,0 l/m 0 min 2 min 0,0 UV-I 25 W/m 38,9 km/h (6 Bft)
22.08.2014 18:42 14,1 C 12,2 C 90 % 1011,3 hPa 0,2 l/m 0 min 2 min 0,0 UV-I 31 W/m 53,0 km/h (7 Bft)
22.08.2014 18:44 13,9 C 12,2 C 91 % 1011,3 hPa 0,0 l/m 0 min 2 min 0,0 UV-I 32 W/m 28,2 km/h (4 Bft)
22.08.2014 18:46 13,9 C 12,2 C 91 % 1011,2 hPa 0,2 l/m 0 min 2 min 0,0 UV-I 25 W/m 42,4 km/h (6 Bft)
22.08.2014 18:48 13,8 C 12,2 C 91 % 1011,2 hPa 0,0 l/m 0 min 2 min 0,0 UV-I 21 W/m 28,2 km/h (4 Bft)
22.08.2014 18:50 13,7 C 12,2 C 91 % 1011,2 hPa 0,0 l/m 0 min 2 min 0,0 UV-I 21 W/m 31,7 km/h (5 Bft)
22.08.2014 18:52 13,7 C 12,2 C 92 % 1011,2 hPa 0,0 l/m 0 min 2 min 0,0 UV-I 25 W/m 35,4 km/h (5 Bft)
22.08.2014 18:54 13,6 C 12,2 C 92 % 1011,3 hPa 0,0 l/m 0 min 2 min 0,0 UV-I 25 W/m 31,7 km/h (5 Bft)
22.08.2014 18:56 13,6 C 12,2 C 92 % 1011,2 hPa 0,2 l/m 0 min 2 min 0,0 UV-I 28 W/m 31,7 km/h (5 Bft)
22.08.2014 18:58 13,6 C 12,2 C 92 % 1011,3 hPa 0,0 l/m 0 min 2 min 0,0 UV-I 35 W/m 28,2 km/h (4 Bft)
22.08.2014 19:00 13,5 C 12,2 C 93 % 1011,3 hPa 0,0 l/m 0 min 2 min 0,0 UV-I 39 W/m 31,7 km/h (5 Bft)
22.08.2014 19:02 13,5 C 12,2 C 93 % 1011,2 hPa 0,0 l/m 0 min 2 min 0,0 UV-I 39 W/m 35,4 km/h (5 Bft)
22.08.2014 19:04 13,6 C 12,2 C 93 % 1011,3 hPa 0,0 l/m 0 min 2 min 0,0 UV-I 37 W/m 24,7 km/h (4 Bft)
22.08.2014 19:06 13,5 C 12,2 C 93 % 1011,3 hPa 0,0 l/m 0 min 2 min 0,0 UV-I 38 W/m 24,7 km/h (4 Bft)
22.08.2014 19:08 13,5 C 12,2 C 93 % 1011,3 hPa 0,0 l/m 0 min 2 min 0,0 UV-I 42 W/m 24,7 km/h (4 Bft)
22.08.2014 19:10 13,5 C 12,2 C 94 % 1011,2 hPa 0,0 l/m 0 min 2 min 0,0 UV-I 48 W/m 21,3 km/h (4 Bft)
22.08.2014 19:12 13,5 C 12,2 C 93 % 1011,2 hPa 0,0 l/m 0 min 2 min 0,0 UV-I 48 W/m 38,9 km/h (6 Bft)
22.08.2014 19:14 13,5 C 12,2 C 94 % 1011,2 hPa 0,2 l/m 0 min 2 min 0,0 UV-I 43 W/m 35,4 km/h (5 Bft)
22.08.2014 19:16 13,5 C 12,2 C 94 % 1011,2 hPa 0,0 l/m 0 min 0 min 0,0 UV-I 39 W/m 21,3 km/h (4 Bft)
22.08.2014 19:18 13,5 C 12,2 C 94 % 1011,1 hPa 0,0 l/m 0 min 0 min 0,0 UV-I 40 W/m 21,3 km/h (4 Bft)
22.08.2014 19:20 13,5 C 12,2 C 94 % 1011,2 hPa 0,0 l/m 0 min 2 min 0,0 UV-I 43 W/m 28,2 km/h (4 Bft)
22.08.2014 19:22 13,5 C 12,2 C 94 % 1011,2 hPa 0,0 l/m 0 min 2 min 0,0 UV-I 44 W/m 24,7 km/h (4 Bft)
22.08.2014 19:24 13,6 C 12,2 C 94 % 1011,2 hPa 0,0 l/m 0 min 2 min 0,0 UV-I 42 W/m 21,3 km/h (4 Bft)
22.08.2014 19:26 13,6 C 12,2 C 94 % 1011,2 hPa 0,0 l/m 0 min 2 min 0,0 UV-I 45 W/m 24,7 km/h (4 Bft)
22.08.2014 19:28 13,6 C 12,2 C 94 % 1011,3 hPa 0,0 l/m 0 min 0 min 0,0 UV-I 45 W/m 17,7 km/h (3 Bft)
22.08.2014 19:30 13,6 C 12,2 C 94 % 1011,3 hPa 0,0 l/m 0 min 0 min 0,0 UV-I 40 W/m 14,2 km/h (3 Bft)
22.08.2014 19:32 13,6 C 12,2 C 94 % 1011,3 hPa 0,0 l/m 0 min 0 min 0,0 UV-I 37 W/m 17,7 km/h (3 Bft)
22.08.2014 19:34 13,6 C 12,2 C 94 % 1011,3 hPa 0,0 l/m 0 min 0 min 0,0 UV-I 44 W/m 14,2 km/h (3 Bft)
22.08.2014 19:36 13,6 C 12,2 C 95 % 1011,3 hPa 0,0 l/m 0 min 0 min 0,0 UV-I 55 W/m 21,3 km/h (4 Bft)
22.08.2014 19:38 13,6 C 12,2 C 95 % 1011,2 hPa 0,0 l/m 0 min 0 min 0,0 UV-I 57 W/m 17,7 km/h (3 Bft)
22.08.2014 19:40 13,6 C 12,2 C 95 % 1011,3 hPa 0,0 l/m 0 min 0 min 0,0 UV-I 46 W/m 35,4 km/h (5 Bft)
22.08.2014 19:42 13,5 C 12,2 C 95 % 1011,3 hPa 0,0 l/m 0 min 0 min 0,0 UV-I 36 W/m 28,2 km/h (4 Bft)
22.08.2014 19:44 13,5 C 12,2 C 95 % 1011,3 hPa 0,0 l/m 0 min 2 min 0,0 UV-I 33 W/m 46,0 km/h (6 Bft)
22.08.2014 19:46 13,6 C 12,2 C 95 % 1011,4 hPa 0,0 l/m 0 min 0 min 0,0 UV-I 33 W/m 31,7 km/h (5 Bft)
22.08.2014 19:48 13,5 C 12,2 C 95 % 1011,3 hPa 0,0 l/m 0 min 0 min 0,0 UV-I 33 W/m 28,2 km/h (4 Bft)
22.08.2014 19:50 13,6 C 12,2 C 95 % 1011,3 hPa 0,0 l/m 0 min 0 min 0,0 UV-I 28 W/m 24,7 km/h (4 Bft)
22.08.2014 19:52 13,6 C 12,2 C 95 % 1011,4 hPa 0,0 l/m 0 min 0 min 0,0 UV-I 26 W/m 31,7 km/h (5 Bft)
22.08.2014 19:54 13,6 C 12,2 C 95 % 1011,4 hPa 0,0 l/m 0 min 0 min 0,0 UV-I 25 W/m 24,7 km/h (4 Bft)
22.08.2014 19:56 13,6 C 12,2 C 95 % 1011,3 hPa 0,0 l/m 0 min 0 min 0,0 UV-I 25 W/m 28,2 km/h (4 Bft)
22.08.2014 19:58 13,5 C 12,2 C 94 % 1011,3 hPa 0,0 l/m 0 min 0 min 0,0 UV-I 23 W/m 31,7 km/h (5 Bft)
22.08.2014 20:00 13,6 C 12,2 C 94 % 1011,3 hPa 0,0 l/m 0 min 0 min 0,0 UV-I 23 W/m 17,7 km/h (3 Bft)
22.08.2014 20:02 13,6 C 12,2 C 94 % 1011,4 hPa 0,0 l/m 0 min 0 min 0,0 UV-I 25 W/m 24,7 km/h (4 Bft)
22.08.2014 20:04 13,5 C 12,2 C 94 % 1011,4 hPa 0,0 l/m 0 min 0 min 0,0 UV-I 29 W/m 28,2 km/h (4 Bft)
22.08.2014 20:06 13,5 C 12,2 C 94 % 1011,3 hPa 0,0 l/m 0 min 0 min 0,0 UV-I 33 W/m 17,7 km/h (3 Bft)
22.08.2014 20:08 13,6 C 12,2 C 94 % 1011,3 hPa 0,0 l/m 0 min 0 min 0,0 UV-I 36 W/m 31,7 km/h (5 Bft)
22.08.2014 20:10 13,6 C 12,2 C 94 % 1011,3 hPa 0,0 l/m 2 min 0 min 0,0 UV-I 35 W/m 17,7 km/h (3 Bft)
22.08.2014 20:12 13,6 C 12,2 C 94 % 1011,3 hPa 0,0 l/m 2 min 0 min 0,0 UV-I 33 W/m 21,3 km/h (4 Bft)
22.08.2014 20:14 13,6 C 12,2 C 94 % 1011,3 hPa 0,0 l/m 0 min 0 min 0,0 UV-I 26 W/m 24,7 km/h (4 Bft)
22.08.2014 20:16 13,6 C 12,2 C 94 % 1011,4 hPa 0,0 l/m 0 min 0 min 0,0 UV-I 20 W/m 14,2 km/h (3 Bft)
22.08.2014 20:18 13,5 C 12,2 C 94 % 1011,4 hPa 0,0 l/m 0 min 0 min 0,0 UV-I 16 W/m 3,5 km/h (1 Bft)
22.08.2014 20:20 13,5 C 12,2 C 94 % 1011,4 hPa 0,0 l/m 0 min 0 min 0,0 UV-I 12 W/m 24,7 km/h (4 Bft)
22.08.2014 20:22 13,4 C 12,2 C 94 % 1011,4 hPa 0,0 l/m 0 min 0 min 0,0 UV-I 12 W/m 21,3 km/h (4 Bft)
22.08.2014 20:24 13,4 C 11,7 C 94 % 1011,3 hPa 0,0 l/m 0 min 0 min 0,0 UV-I 11 W/m 17,7 km/h (3 Bft)
22.08.2014 20:26 13,4 C 11,7 C 94 % 1011,4 hPa 0,0 l/m 0 min 0 min 0,0 UV-I 11 W/m 17,7 km/h (3 Bft)
22.08.2014 20:28 13,4 C 11,7 C 94 % 1011,4 hPa 0,0 l/m 0 min 0 min 0,0 UV-I 9 W/m 17,7 km/h (3 Bft)
22.08.2014 20:30 13,3 C 11,7 C 94 % 1011,4 hPa 0,0 l/m 0 min 0 min 0,0 UV-I 9 W/m 17,7 km/h (3 Bft)
22.08.2014 20:32 13,3 C 11,7 C 94 % 1011,4 hPa 0,0 l/m 0 min 0 min 0,0 UV-I 7 W/m 10,7 km/h (2 Bft)
22.08.2014 20:34 13,3 C 11,7 C 94 % 1011,4 hPa 0,0 l/m 0 min 0 min 0,0 UV-I 7 W/m 14,2 km/h (3 Bft)
22.08.2014 20:36 13,2 C 11,7 C 94 % 1011,4 hPa 0,0 l/m 0 min 0 min 0,0 UV-I 6 W/m 7,1 km/h (2 Bft)
22.08.2014 20:38 13,2 C 11,7 C 94 % 1011,4 hPa 0,0 l/m 0 min 0 min 0,0 UV-I 0 W/m 14,2 km/h (3 Bft)
22.08.2014 20:40 13,2 C 11,7 C 94 % 1011,4 hPa 0,0 l/m 0 min 0 min 0,0 UV-I 0 W/m 14,2 km/h (3 Bft)
22.08.2014 20:42 13,1 C 11,7 C 94 % 1011,4 hPa 0,0 l/m 0 min 0 min 0,0 UV-I 0 W/m 10,7 km/h (2 Bft)
22.08.2014 20:44 13,1 C 11,7 C 95 % 1011,4 hPa 0,0 l/m 0 min 0 min 0,0 UV-I 0 W/m 14,2 km/h (3 Bft)
22.08.2014 20:46 13,0 C 11,7 C 95 % 1011,4 hPa 0,0 l/m 0 min 0 min 0,0 UV-I 0 W/m 14,2 km/h (3 Bft)
22.08.2014 20:48 13,0 C 11,7 C 95 % 1011,4 hPa 0,0 l/m 0 min 0 min 0,0 UV-I 0 W/m 17,7 km/h (3 Bft)
22.08.2014 20:50 13,0 C 11,7 C 95 % 1011,5 hPa 0,0 l/m 0 min 0 min 0,0 UV-I 0 W/m 17,7 km/h (3 Bft)
22.08.2014 20:52 12,9 C 11,7 C 95 % 1011,4 hPa 0,0 l/m 0 min 0 min 0,0 UV-I 0 W/m 17,7 km/h (3 Bft)
22.08.2014 20:54 12,9 C 11,7 C 95 % 1011,4 hPa 0,0 l/m 0 min 0 min 0,0 UV-I 0 W/m 14,2 km/h (3 Bft)
22.08.2014 20:56 12,9 C 11,7 C 95 % 1011,5 hPa 0,0 l/m 0 min 0 min 0,0 UV-I 0 W/m 14,2 km/h (3 Bft)
22.08.2014 20:58 12,9 C 11,7 C 95 % 1011,5 hPa 0,0 l/m 0 min 0 min 0,0 UV-I 0 W/m 0,0 km/h (0 Bft)
22.08.2014 21:00 12,8 C 11,7 C 95 % 1011,4 hPa 0,0 l/m 0 min 0 min 0,0 UV-I 0 W/m 10,7 km/h (2 Bft)
22.08.2014 21:02 12,8 C 11,1 C 95 % 1011,5 hPa 0,0 l/m 0 min 0 min 0,0 UV-I 0 W/m 0,0 km/h (0 Bft)
22.08.2014 21:04 12,8 C 11,1 C 95 % 1011,5 hPa 0,0 l/m 0 min 0 min 0,0 UV-I 0 W/m 24,7 km/h (4 Bft)
22.08.2014 21:06 12,8 C 11,1 C 95 % 1011,5 hPa 0,0 l/m 0 min 0 min 0,0 UV-I 0 W/m 3,5 km/h (1 Bft)
22.08.2014 21:08 12,7 C 11,1 C 95 % 1011,6 hPa 0,0 l/m 0 min 0 min 0,0 UV-I 0 W/m 10,7 km/h (2 Bft)
22.08.2014 21:10 12,7 C 11,1 C 95 % 1011,6 hPa 0,0 l/m 0 min 0 min 0,0 UV-I 0 W/m 7,1 km/h (2 Bft)
22.08.2014 21:12 12,7 C 11,1 C 96 % 1011,6 hPa 0,0 l/m 0 min 0 min 0,0 UV-I 0 W/m 3,5 km/h (1 Bft)
22.08.2014 21:14 12,7 C 11,1 C 96 % 1011,6 hPa 0,0 l/m 0 min 0 min 0,0 UV-I 0 W/m 17,7 km/h (3 Bft)
22.08.2014 21:16 12,7 C 11,7 C 96 % 1011,6 hPa 0,0 l/m 0 min 0 min 0,0 UV-I 0 W/m 17,7 km/h (3 Bft)
22.08.2014 21:18 12,8 C 11,7 C 96 % 1011,6 hPa 0,0 l/m 0 min 0 min 0,0 UV-I 0 W/m 0,0 km/h (0 Bft)
22.08.2014 21:20 12,8 C 11,7 C 96 % 1011,6 hPa 0,0 l/m 0 min 0 min 0,0 UV-I 0 W/m 0,0 km/h (0 Bft)
22.08.2014 21:22 12,8 C 11,7 C 96 % 1011,6 hPa 0,0 l/m 0 min 0 min 0,0 UV-I 0 W/m 14,2 km/h (3 Bft)
22.08.2014 21:24 12,8 C 11,7 C 96 % 1011,5 hPa 0,0 l/m 0 min 2 min 0,0 UV-I 0 W/m 14,2 km/h (3 Bft)
22.08.2014 21:26 12,8 C 11,7 C 96 % 1011,5 hPa 0,0 l/m 0 min 2 min 0,0 UV-I 0 W/m 17,7 km/h (3 Bft)
22.08.2014 21:28 12,8 C 11,7 C 96 % 1011,6 hPa 0,0 l/m 0 min 0 min 0,0 UV-I 0 W/m 10,7 km/h (2 Bft)
22.08.2014 21:30 12,8 C 11,7 C 96 % 1011,6 hPa 0,0 l/m 0 min 0 min 0,0 UV-I 0 W/m 21,3 km/h (4 Bft)
22.08.2014 21:32 12,8 C 11,7 C 96 % 1011,7 hPa 0,0 l/m 0 min 0 min 0,0 UV-I 0 W/m 14,2 km/h (3 Bft)
22.08.2014 21:34 12,8 C 11,7 C 96 % 1011,7 hPa 0,0 l/m 0 min 0 min 0,0 UV-I 0 W/m 14,2 km/h (3 Bft)
22.08.2014 21:36 12,8 C 11,7 C 96 % 1011,7 hPa 0,0 l/m 0 min 0 min 0,0 UV-I 0 W/m 7,1 km/h (2 Bft)
22.08.2014 21:38 12,8 C 11,7 C 96 % 1011,7 hPa 0,0 l/m 0 min 0 min 0,0 UV-I 0 W/m 17,7 km/h (3 Bft)
22.08.2014 21:40 12,9 C 11,7 C 96 % 1011,7 hPa 0,0 l/m 0 min 0 min 0,0 UV-I 0 W/m 14,2 km/h (3 Bft)
22.08.2014 21:42 12,9 C 11,7 C 96 % 1011,6 hPa 0,0 l/m 0 min 0 min 0,0 UV-I 0 W/m 17,7 km/h (3 Bft)
22.08.2014 21:44 12,9 C 11,7 C 96 % 1011,6 hPa 0,0 l/m 0 min 2 min 0,0 UV-I 0 W/m 14,2 km/h (3 Bft)
22.08.2014 21:46 12,9 C 11,7 C 96 % 1011,6 hPa 0,0 l/m 0 min 2 min 0,0 UV-I 0 W/m 10,7 km/h (2 Bft)
22.08.2014 21:48 12,9 C 11,7 C 96 % 1011,6 hPa 0,0 l/m 0 min 2 min 0,0 UV-I 0 W/m 17,7 km/h (3 Bft)
22.08.2014 21:50 13,0 C 11,7 C 96 % 1011,6 hPa 0,0 l/m 0 min 2 min 0,0 UV-I 0 W/m 31,7 km/h (5 Bft)
22.08.2014 21:52 13,0 C 11,7 C 96 % 1011,6 hPa 0,2 l/m 0 min 2 min 0,0 UV-I 0 W/m 21,3 km/h (4 Bft)
22.08.2014 21:54 13,1 C 11,7 C 96 % 1011,6 hPa 0,0 l/m 0 min 2 min 0,0 UV-I 0 W/m 31,7 km/h (5 Bft)
22.08.2014 21:56 13,1 C 11,7 C 96 % 1011,6 hPa 0,0 l/m 0 min 2 min 0,0 UV-I 0 W/m 24,7 km/h (4 Bft)
22.08.2014 21:58 13,1 C 11,7 C 96 % 1011,7 hPa 0,0 l/m 0 min 2 min 0,0 UV-I 0 W/m 17,7 km/h (3 Bft)
22.08.2014 22:00 13,1 C 11,7 C 96 % 1011,7 hPa 0,0 l/m 0 min 2 min 0,0 UV-I 0 W/m 24,7 km/h (4 Bft)
22.08.2014 22:02 13,1 C 11,7 C 96 % 1011,7 hPa 0,0 l/m 0 min 2 min 0,0 UV-I 0 W/m 42,4 km/h (6 Bft)
22.08.2014 22:04 13,1 C 11,7 C 96 % 1011,7 hPa 0,0 l/m 0 min 2 min 0,0 UV-I 0 W/m 28,2 km/h (4 Bft)
22.08.2014 22:06 13,1 C 11,7 C 96 % 1011,7 hPa 0,0 l/m 0 min 0 min 0,0 UV-I 0 W/m 28,2 km/h (4 Bft)
22.08.2014 22:08 13,1 C 11,7 C 96 % 1011,7 hPa 0,0 l/m 0 min 0 min 0,0 UV-I 0 W/m 17,7 km/h (3 Bft)
22.08.2014 22:10 13,1 C 11,7 C 96 % 1011,6 hPa 0,0 l/m 0 min 0 min 0,0 UV-I 0 W/m 24,7 km/h (4 Bft)
22.08.2014 22:12 13,1 C 11,7 C 96 % 1011,8 hPa 0,0 l/m 0 min 0 min 0,0 UV-I 0 W/m 14,2 km/h (3 Bft)
22.08.2014 22:14 13,1 C 11,7 C 96 % 1011,8 hPa 0,0 l/m 0 min 0 min 0,0 UV-I 0 W/m 10,7 km/h (2 Bft)
22.08.2014 22:16 13,0 C 11,7 C 96 % 1011,8 hPa 0,0 l/m 0 min 0 min 0,0 UV-I 0 W/m 14,2 km/h (3 Bft)
22.08.2014 22:18 13,0 C 11,7 C 96 % 1011,8 hPa 0,0 l/m 0 min 0 min 0,0 UV-I 0 W/m 17,7 km/h (3 Bft)
22.08.2014 22:20 13,0 C 11,7 C 96 % 1011,9 hPa 0,0 l/m 0 min 0 min 0,0 UV-I 0 W/m 17,7 km/h (3 Bft)
22.08.2014 22:22 12,9 C 11,7 C 96 % 1012,0 hPa 0,0 l/m 0 min 0 min 0,0 UV-I 0 W/m 17,7 km/h (3 Bft)
22.08.2014 22:24 12,9 C 11,7 C 96 % 1011,9 hPa 0,0 l/m 0 min 0 min 0,0 UV-I 0 W/m 21,3 km/h (4 Bft)
22.08.2014 22:26 12,9 C 11,7 C 96 % 1011,9 hPa 0,0 l/m 0 min 0 min 0,0 UV-I 0 W/m 14,2 km/h (3 Bft)
22.08.2014 22:28 12,9 C 11,7 C 96 % 1011,8 hPa 0,0 l/m 0 min 0 min 0,0 UV-I 0 W/m 17,7 km/h (3 Bft)
22.08.2014 22:30 12,8 C 11,7 C 96 % 1011,9 hPa 0,0 l/m 0 min 0 min 0,0 UV-I 0 W/m 14,2 km/h (3 Bft)
22.08.2014 22:32 12,8 C 11,7 C 96 % 1011,9 hPa 0,0 l/m 0 min 0 min 0,0 UV-I 0 W/m 21,3 km/h (4 Bft)
22.08.2014 22:34 12,8 C 11,7 C 96 % 1011,9 hPa 0,0 l/m 0 min 0 min 0,0 UV-I 0 W/m 14,2 km/h (3 Bft)
22.08.2014 22:36 12,7 C 11,7 C 96 % 1011,8 hPa 0,0 l/m 0 min 0 min 0,0 UV-I 0 W/m 14,2 km/h (3 Bft)
22.08.2014 22:38 12,7 C 11,7 C 96 % 1011,9 hPa 0,0 l/m 0 min 0 min 0,0 UV-I 0 W/m 14,2 km/h (3 Bft)
22.08.2014 22:40 12,7 C 11,7 C 96 % 1012,0 hPa 0,0 l/m 0 min 0 min 0,0 UV-I 0 W/m 21,3 km/h (4 Bft)
22.08.2014 22:42 12,6 C 11,7 C 96 % 1012,0 hPa 0,0 l/m 0 min 0 min 0,0 UV-I 0 W/m 17,7 km/h (3 Bft)
22.08.2014 22:44 12,6 C 11,1 C 96 % 1012,0 hPa 0,0 l/m 0 min 0 min 0,0 UV-I 0 W/m 17,7 km/h (3 Bft)
22.08.2014 22:46 12,6 C 11,1 C 96 % 1012,0 hPa 0,0 l/m 0 min 0 min 0,0 UV-I 0 W/m 10,7 km/h (2 Bft)
22.08.2014 22:48 12,6 C 11,1 C 96 % 1012,0 hPa 0,0 l/m 0 min 0 min 0,0 UV-I 0 W/m 14,2 km/h (3 Bft)
22.08.2014 22:50 12,6 C 11,1 C 96 % 1012,0 hPa 0,0 l/m 0 min 0 min 0,0 UV-I 0 W/m 21,3 km/h (4 Bft)
22.08.2014 22:52 12,6 C 11,1 C 96 % 1012,1 hPa 0,0 l/m 0 min 0 min 0,0 UV-I 0 W/m 14,2 km/h (3 Bft)
22.08.2014 22:54 12,5 C 11,1 C 96 % 1012,1 hPa 0,0 l/m 0 min 0 min 0,0 UV-I 0 W/m 14,2 km/h (3 Bft)
22.08.2014 22:56 12,5 C 11,7 C 96 % 1012,1 hPa 0,0 l/m 0 min 0 min 0,0 UV-I 0 W/m 24,7 km/h (4 Bft)
22.08.2014 22:58 12,6 C 11,7 C 96 % 1012,2 hPa 0,0 l/m 0 min 0 min 0,0 UV-I 0 W/m 21,3 km/h (4 Bft)
22.08.2014 23:00 12,6 C 11,7 C 96 % 1012,2 hPa 0,0 l/m 0 min 0 min 0,0 UV-I 0 W/m 24,7 km/h (4 Bft)
22.08.2014 23:02 12,5 C 11,1 C 96 % 1012,1 hPa 0,0 l/m 0 min 0 min 0,0 UV-I 0 W/m 17,7 km/h (3 Bft)
22.08.2014 23:04 12,6 C 11,7 C 96 % 1012,1 hPa 0,0 l/m 0 min 0 min 0,0 UV-I 0 W/m 21,3 km/h (4 Bft)
22.08.2014 23:06 12,5 C 11,1 C 96 % 1012,1 hPa 0,0 l/m 0 min 0 min 0,0 UV-I 0 W/m 21,3 km/h (4 Bft)
22.08.2014 23:08 12,5 C 11,1 C 96 % 1012,2 hPa 0,0 l/m 0 min 0 min 0,0 UV-I 0 W/m 21,3 km/h (4 Bft)
22.08.2014 23:10 12,5 C 11,1 C 96 % 1012,2 hPa 0,0 l/m 0 min 0 min 0,0 UV-I 0 W/m 21,3 km/h (4 Bft)
22.08.2014 23:12 12,5 C 11,1 C 96 % 1012,3 hPa 0,0 l/m 0 min 0 min 0,0 UV-I 0 W/m 21,3 km/h (4 Bft)
22.08.2014 23:14 12,5 C 11,1 C 96 % 1012,2 hPa 0,0 l/m 0 min 0 min 0,0 UV-I 0 W/m 24,7 km/h (4 Bft)
22.08.2014 23:16 12,4 C 11,1 C 96 % 1012,2 hPa 0,0 l/m 0 min 0 min 0,0 UV-I 0 W/m 17,7 km/h (3 Bft)
22.08.2014 23:18 12,4 C 11,1 C 96 % 1012,2 hPa 0,0 l/m 0 min 0 min 0,0 UV-I 0 W/m 28,2 km/h (4 Bft)
22.08.2014 23:20 12,4 C 11,1 C 96 % 1012,2 hPa 0,0 l/m 0 min 0 min 0,0 UV-I 0 W/m 24,7 km/h (4 Bft)
22.08.2014 23:22 12,3 C 11,1 C 96 % 1012,2 hPa 0,0 l/m 0 min 0 min 0,0 UV-I 0 W/m 31,7 km/h (5 Bft)
22.08.2014 23:24 12,3 C 11,1 C 96 % 1012,3 hPa 0,0 l/m 0 min 0 min 0,0 UV-I 0 W/m 31,7 km/h (5 Bft)
22.08.2014 23:26 12,2 C 11,1 C 96 % 1012,1 hPa 0,0 l/m 0 min 0 min 0,0 UV-I 0 W/m 28,2 km/h (4 Bft)
22.08.2014 23:28 12,2 C 11,1 C 95 % 1012,2 hPa 0,0 l/m 0 min 0 min 0,0 UV-I 0 W/m 21,3 km/h (4 Bft)
22.08.2014 23:30 12,2 C 11,1 C 95 % 1012,2 hPa 0,0 l/m 0 min 0 min 0,0 UV-I 0 W/m 17,7 km/h (3 Bft)
22.08.2014 23:32 12,2 C 11,1 C 95 % 1012,2 hPa 0,0 l/m 0 min 0 min 0,0 UV-I 0 W/m 21,3 km/h (4 Bft)
22.08.2014 23:34 12,2 C 10,6 C 95 % 1012,2 hPa 0,0 l/m 0 min 0 min 0,0 UV-I 0 W/m 21,3 km/h (4 Bft)
22.08.2014 23:36 12,1 C 10,6 C 95 % 1012,1 hPa 0,0 l/m 0 min 0 min 0,0 UV-I 0 W/m 24,7 km/h (4 Bft)
22.08.2014 23:38 12,1 C 10,6 C 95 % 1012,1 hPa 0,0 l/m 0 min 0 min 0,0 UV-I 0 W/m 21,3 km/h (4 Bft)
22.08.2014 23:40 12,1 C 10,6 C 95 % 1012,2 hPa 0,0 l/m 0 min 0 min 0,0 UV-I 0 W/m 28,2 km/h (4 Bft)
22.08.2014 23:42 12,1 C 10,6 C 95 % 1012,2 hPa 0,0 l/m 0 min 0 min 0,0 UV-I 0 W/m 17,7 km/h (3 Bft)
22.08.2014 23:44 12,0 C 10,6 C 94 % 1012,1 hPa 0,0 l/m 0 min 0 min 0,0 UV-I 0 W/m 17,7 km/h (3 Bft)
22.08.2014 23:46 12,0 C 10,6 C 94 % 1012,2 hPa 0,0 l/m 0 min 0 min 0,0 UV-I 0 W/m 28,2 km/h (4 Bft)
22.08.2014 23:48 11,9 C 10,6 C 94 % 1012,2 hPa 0,0 l/m 0 min 0 min 0,0 UV-I 0 W/m 24,7 km/h (4 Bft)
22.08.2014 23:50 11,9 C 10,6 C 94 % 1012,2 hPa 0,0 l/m 0 min 0 min 0,0 UV-I 0 W/m 17,7 km/h (3 Bft)
22.08.2014 23:52 11,9 C 10,6 C 94 % 1012,2 hPa 0,0 l/m 0 min 0 min 0,0 UV-I 0 W/m 21,3 km/h (4 Bft)
22.08.2014 23:54 11,9 C 10,6 C 94 % 1012,2 hPa 0,0 l/m 0 min 0 min 0,0 UV-I 0 W/m 17,7 km/h (3 Bft)
22.08.2014 23:56 11,9 C 10,6 C 94 % 1012,2 hPa 0,0 l/m 0 min 0 min 0,0 UV-I 0 W/m 21,3 km/h (4 Bft)
22.08.2014 23:58 11,8 C 10,6 C 94 % 1012,2 hPa 0,0 l/m 0 min 0 min 0,0 UV-I 0 W/m 24,7 km/h (4 Bft)
_ Min-Zeit 06:22 05:40 15:52 15:58 - - - - - 01:06
Minimum _ 11,2 C 10,0 C 60 % 1010,4 hPa - - - - - 0,0 km/h (0 Bft)
_ Max-Zeit 15:32 13:42 21:12 00:00 18:22 06:46 16:04 12:08 11:58 13:18
Maximum _ 19,2 C 18,9 C 96 % 1014,3 hPa 0,2 l/m 2 min 2 min 3,5 UV-I 770 W/m 70,6 km/h
SW (8 Bft)
Durchschnitt _ 14,4 C 13,3 C 82 % 1012,0 hPa #1,4 l/m #3:25 h #2:45 h 1,7 UV-I 196 W/m 25,8 km/h (4 Bft)
© 2014 W. Hausmann